Wetterdaten: Freitag, 02.01.2026
Datum Zeit Temp. Aussen Temp. o. S. Temp +5cm Feuchte Auss Luftdruck Regen Sonnenschein Regendauer Solar Windböen Empfang
02.01.2026 00:00 3,1 °C 2,2 °C -1,1 °C 94 % 999,4 hPa 0,0 l/m² 0 min 0 min 0 W/m² 12,9 km/h (3 Bft) 96,36 %
02.01.2026 00:02 3,1 °C 2,8 °C -1,1 °C 94 % 999,4 hPa 0,0 l/m² 0 min 0 min 0 W/m² 19,3 km/h (3 Bft) 100,00 %
02.01.2026 00:04 3,1 °C 2,2 °C -1,1 °C 94 % 999,3 hPa 0,0 l/m² 0 min 0 min 0 W/m² 16,1 km/h (3 Bft) 93,88 %
02.01.2026 00:07 3,1 °C 2,2 °C -1,7 °C 93 % 999,3 hPa 0,0 l/m² 0 min 0 min 0 W/m² 19,3 km/h (3 Bft) 93,88 %
02.01.2026 00:08 3,1 °C 2,2 °C -1,7 °C 93 % 999,2 hPa 0,0 l/m² 0 min 0 min 0 W/m² 19,3 km/h (3 Bft) 100,00 %
02.01.2026 00:12 3,0 °C 2,2 °C -1,7 °C 94 % 999,3 hPa 0,0 l/m² 0 min 0 min 0 W/m² 12,9 km/h (3 Bft) 87,50 %
02.01.2026 00:14 3,0 °C 2,2 °C -1,7 °C 94 % 999,3 hPa 0,0 l/m² 0 min 0 min 0 W/m² 12,9 km/h (3 Bft) 97,50 %
02.01.2026 00:16 3,0 °C 2,2 °C -1,7 °C 94 % 999,2 hPa 0,0 l/m² 0 min 0 min 0 W/m² 38,6 km/h (5 Bft) 97,87 %
02.01.2026 00:18 3,0 °C 2,2 °C -1,7 °C 94 % 999,1 hPa 0,0 l/m² 0 min 0 min 0 W/m² 32,2 km/h (5 Bft) 100,00 %
02.01.2026 00:20 2,9 °C 2,2 °C -1,7 °C 94 % 999,1 hPa 0,0 l/m² 0 min 0 min 0 W/m² 19,3 km/h (3 Bft) 100,00 %
02.01.2026 00:22 2,9 °C 2,2 °C -1,7 °C 93 % 999,1 hPa 0,0 l/m² 0 min 0 min 0 W/m² 29,0 km/h (5 Bft) 100,00 %
02.01.2026 00:24 2,9 °C 2,2 °C -1,7 °C 93 % 999,1 hPa 0,0 l/m² 0 min 0 min 0 W/m² 19,3 km/h (3 Bft) 100,00 %
02.01.2026 00:26 2,9 °C 2,2 °C -1,7 °C 93 % 999,1 hPa 0,0 l/m² 0 min 0 min 0 W/m² 16,1 km/h (3 Bft) 100,00 %
02.01.2026 00:28 2,9 °C 2,2 °C -1,7 °C 93 % 999,1 hPa 0,0 l/m² 0 min 0 min 0 W/m² 25,7 km/h (4 Bft) 100,00 %
02.01.2026 00:30 2,9 °C 2,2 °C -1,7 °C 93 % 999,1 hPa 0,0 l/m² 0 min 0 min 0 W/m² 19,3 km/h (3 Bft) 100,00 %
02.01.2026 00:32 2,8 °C 2,2 °C -1,7 °C 93 % 999,1 hPa 0,0 l/m² 0 min 0 min 0 W/m² 16,1 km/h (3 Bft) 97,92 %
02.01.2026 00:34 2,8 °C 2,2 °C -1,7 °C 93 % 999,1 hPa 0,0 l/m² 0 min 0 min 0 W/m² 12,9 km/h (3 Bft) 93,33 %
02.01.2026 00:36 2,8 °C 2,2 °C -1,7 °C 93 % 999,2 hPa 0,0 l/m² 0 min 0 min 0 W/m² 25,7 km/h (4 Bft) 97,92 %
02.01.2026 00:38 2,8 °C 2,2 °C -1,7 °C 93 % 999,0 hPa 0,0 l/m² 0 min 0 min 0 W/m² 16,1 km/h (3 Bft) 91,11 %
02.01.2026 00:40 2,8 °C 2,2 °C -1,7 °C 93 % 999,1 hPa 0,0 l/m² 0 min 0 min 0 W/m² 16,1 km/h (3 Bft) 93,88 %
02.01.2026 00:42 2,8 °C 2,2 °C -1,7 °C 93 % 999,0 hPa 0,0 l/m² 0 min 0 min 0 W/m² 22,5 km/h (4 Bft) 95,56 %
02.01.2026 00:44 2,8 °C 2,2 °C -1,7 °C 93 % 999,0 hPa 0,0 l/m² 0 min 0 min 0 W/m² 16,1 km/h (3 Bft) 95,92 %
02.01.2026 00:46 2,8 °C 2,2 °C -1,7 °C 93 % 999,0 hPa 0,0 l/m² 0 min 0 min 0 W/m² 12,9 km/h (3 Bft) 97,73 %
02.01.2026 00:48 2,7 °C 2,2 °C -1,7 °C 93 % 999,0 hPa 0,0 l/m² 0 min 0 min 0 W/m² 16,1 km/h (3 Bft) 97,96 %
02.01.2026 00:50 2,7 °C 2,2 °C -1,7 °C 93 % 999,0 hPa 0,0 l/m² 0 min 0 min 0 W/m² 22,5 km/h (4 Bft) 95,56 %
02.01.2026 00:52 2,7 °C 2,2 °C -1,7 °C 93 % 999,0 hPa 0,0 l/m² 0 min 0 min 0 W/m² 12,9 km/h (3 Bft) 95,92 %
02.01.2026 00:54 2,7 °C 2,2 °C -1,7 °C 93 % 998,9 hPa 0,0 l/m² 0 min 0 min 0 W/m² 25,7 km/h (4 Bft) 93,18 %
02.01.2026 00:56 2,7 °C 2,2 °C -1,7 °C 93 % 999,0 hPa 0,0 l/m² 0 min 0 min 0 W/m² 12,9 km/h (3 Bft) 94,00 %
02.01.2026 00:58 2,7 °C 2,2 °C -1,7 °C 93 % 998,9 hPa 0,0 l/m² 0 min 0 min 0 W/m² 19,3 km/h (3 Bft) 95,35 %
02.01.2026 01:00 2,7 °C 2,2 °C -1,7 °C 93 % 998,9 hPa 0,0 l/m² 0 min 0 min 0 W/m² 9,7 km/h (2 Bft) 96,00 %
02.01.2026 01:02 2,7 °C 2,2 °C -1,7 °C 93 % 998,9 hPa 0,0 l/m² 0 min 0 min 0 W/m² 12,9 km/h (3 Bft) 95,45 %
02.01.2026 01:04 2,7 °C 2,2 °C -1,7 °C 93 % 998,9 hPa 0,0 l/m² 0 min 0 min 0 W/m² 12,9 km/h (3 Bft) 98,04 %
02.01.2026 01:06 2,7 °C 2,2 °C -1,7 °C 93 % 998,9 hPa 0,0 l/m² 0 min 0 min 0 W/m² 16,1 km/h (3 Bft) 97,87 %
02.01.2026 01:08 2,7 °C 2,2 °C -1,7 °C 93 % 998,8 hPa 0,0 l/m² 0 min 0 min 0 W/m² 16,1 km/h (3 Bft) 97,87 %
02.01.2026 01:10 2,7 °C 2,2 °C -1,7 °C 93 % 998,9 hPa 0,0 l/m² 0 min 0 min 0 W/m² 12,9 km/h (3 Bft) 97,37 %
02.01.2026 01:12 2,7 °C 2,2 °C -1,7 °C 93 % 998,8 hPa 0,0 l/m² 0 min 0 min 0 W/m² 16,1 km/h (3 Bft) 94,44 %
02.01.2026 01:14 2,7 °C 2,2 °C -1,7 °C 93 % 998,9 hPa 0,0 l/m² 0 min 0 min 0 W/m² 22,5 km/h (4 Bft) 94,12 %
02.01.2026 01:16 2,7 °C 2,2 °C -1,7 °C 93 % 998,7 hPa 0,0 l/m² 0 min 0 min 0 W/m² 22,5 km/h (4 Bft) 97,14 %
02.01.2026 01:18 2,7 °C 2,2 °C -1,7 °C 93 % 998,8 hPa 0,0 l/m² 0 min 0 min 0 W/m² 19,3 km/h (3 Bft) 98,28 %
02.01.2026 01:20 2,7 °C 2,2 °C -1,7 °C 93 % 998,7 hPa 0,0 l/m² 0 min 0 min 0 W/m² 25,7 km/h (4 Bft) 97,22 %
02.01.2026 01:22 2,8 °C 2,2 °C -1,7 °C 93 % 998,7 hPa 0,0 l/m² 0 min 0 min 0 W/m² 22,5 km/h (4 Bft) 98,18 %
02.01.2026 01:24 2,8 °C 2,2 °C -1,7 °C 93 % 998,8 hPa 0,0 l/m² 0 min 0 min 0 W/m² 29,0 km/h (5 Bft) 98,00 %
02.01.2026 01:26 2,8 °C 2,2 °C -1,7 °C 93 % 998,7 hPa 0,0 l/m² 0 min 0 min 0 W/m² 29,0 km/h (5 Bft) 97,62 %
02.01.2026 01:28 2,8 °C 2,2 °C -1,7 °C 93 % 998,7 hPa 0,0 l/m² 0 min 0 min 0 W/m² 29,0 km/h (5 Bft) 92,31 %
02.01.2026 01:30 2,8 °C 2,2 °C -1,7 °C 93 % 998,7 hPa 0,0 l/m² 0 min 0 min 0 W/m² 19,3 km/h (3 Bft) 97,37 %
02.01.2026 01:32 2,8 °C 2,2 °C -1,7 °C 93 % 998,8 hPa 0,0 l/m² 0 min 0 min 0 W/m² 22,5 km/h (4 Bft) 94,44 %
02.01.2026 01:34 2,8 °C 2,2 °C -1,7 °C 93 % 998,7 hPa 0,0 l/m² 0 min 0 min 0 W/m² 29,0 km/h (5 Bft) 100,00 %
02.01.2026 01:36 2,8 °C 2,2 °C -1,7 °C 93 % 998,7 hPa 0,0 l/m² 0 min 0 min 0 W/m² 25,7 km/h (4 Bft) 100,00 %
02.01.2026 01:38 2,8 °C 2,2 °C -1,7 °C 93 % 998,7 hPa 0,0 l/m² 0 min 0 min 0 W/m² 22,5 km/h (4 Bft) 97,83 %
02.01.2026 01:40 2,9 °C 2,2 °C -1,7 °C 92 % 998,7 hPa 0,0 l/m² 0 min 0 min 0 W/m² 16,1 km/h (3 Bft) 98,21 %
02.01.2026 01:42 2,8 °C 2,2 °C -1,7 °C 92 % 998,7 hPa 0,0 l/m² 0 min 0 min 0 W/m² 19,3 km/h (3 Bft) 100,00 %
02.01.2026 01:44 2,8 °C 2,2 °C -1,7 °C 92 % 998,7 hPa 0,0 l/m² 0 min 0 min 0 W/m² 29,0 km/h (5 Bft) 96,23 %
02.01.2026 01:46 2,9 °C 2,2 °C -1,7 °C 92 % 998,7 hPa 0,0 l/m² 0 min 0 min 0 W/m² 22,5 km/h (4 Bft) 100,00 %
02.01.2026 01:48 2,9 °C 2,2 °C -1,7 °C 92 % 998,7 hPa 0,0 l/m² 0 min 0 min 0 W/m² 19,3 km/h (3 Bft) 96,00 %
02.01.2026 01:50 2,8 °C 2,2 °C -1,7 °C 92 % 998,7 hPa 0,0 l/m² 0 min 0 min 0 W/m² 16,1 km/h (3 Bft) 98,15 %
02.01.2026 01:52 2,8 °C 2,2 °C -1,7 °C 92 % 998,8 hPa 0,0 l/m² 0 min 0 min 0 W/m² 22,5 km/h (4 Bft) 95,00 %
02.01.2026 01:54 2,8 °C 2,2 °C -1,7 °C 92 % 998,6 hPa 0,0 l/m² 0 min 0 min 0 W/m² 22,5 km/h (4 Bft) 98,11 %
02.01.2026 01:56 2,8 °C 2,2 °C -1,7 °C 92 % 998,7 hPa 0,0 l/m² 0 min 0 min 0 W/m² 19,3 km/h (3 Bft) 95,00 %
02.01.2026 01:58 2,8 °C 2,2 °C -1,7 °C 92 % 998,6 hPa 0,0 l/m² 0 min 0 min 0 W/m² 19,3 km/h (3 Bft) 98,00 %
02.01.2026 02:00 2,9 °C 2,2 °C -1,7 °C 92 % 998,7 hPa 0,0 l/m² 0 min 0 min 0 W/m² 25,7 km/h (4 Bft) 97,67 %
02.01.2026 02:02 2,8 °C 2,2 °C -1,7 °C 92 % 998,6 hPa 0,0 l/m² 0 min 0 min 0 W/m² 16,1 km/h (3 Bft) 96,08 %
02.01.2026 02:04 2,8 °C 2,2 °C -1,7 °C 92 % 998,5 hPa 0,0 l/m² 0 min 0 min 0 W/m² 16,1 km/h (3 Bft) 97,67 %
02.01.2026 02:06 2,8 °C 2,2 °C -1,7 °C 92 % 998,6 hPa 0,0 l/m² 0 min 0 min 0 W/m² 16,1 km/h (3 Bft) 96,08 %
02.01.2026 02:08 2,8 °C 2,2 °C -1,7 °C 92 % 998,5 hPa 0,0 l/m² 0 min 0 min 0 W/m² 12,9 km/h (3 Bft) 97,44 %
02.01.2026 02:12 2,8 °C 2,2 °C -1,7 °C 92 % 998,6 hPa 0,0 l/m² 0 min 0 min 0 W/m² 16,1 km/h (3 Bft) 95,96 %
02.01.2026 02:14 2,8 °C 2,2 °C -1,7 °C 92 % 998,6 hPa 0,0 l/m² 0 min 0 min 0 W/m² 16,1 km/h (3 Bft) 97,56 %
02.01.2026 02:16 2,8 °C 2,2 °C -1,7 °C 92 % 998,6 hPa 0,0 l/m² 0 min 0 min 0 W/m² 22,5 km/h (4 Bft) 93,10 %
02.01.2026 02:18 2,8 °C 2,2 °C -1,7 °C 92 % 998,7 hPa 0,0 l/m² 0 min 0 min 0 W/m² 16,1 km/h (3 Bft) 95,45 %
02.01.2026 02:20 2,8 °C 2,2 °C -1,7 °C 92 % 998,7 hPa 0,0 l/m² 0 min 0 min 0 W/m² 35,4 km/h (5 Bft) 94,87 %
02.01.2026 02:22 2,8 °C 2,2 °C -1,7 °C 92 % 998,6 hPa 0,0 l/m² 0 min 0 min 0 W/m² 12,9 km/h (3 Bft) 94,83 %
02.01.2026 02:24 2,8 °C 2,2 °C -1,7 °C 92 % 998,5 hPa 0,0 l/m² 0 min 0 min 0 W/m² 16,1 km/h (3 Bft) 97,62 %
02.01.2026 02:26 2,7 °C 2,2 °C -1,7 °C 92 % 998,5 hPa 0,0 l/m² 0 min 0 min 0 W/m² 22,5 km/h (4 Bft) 92,50 %
02.01.2026 02:28 2,7 °C 2,2 °C -1,7 °C 92 % 998,5 hPa 0,0 l/m² 0 min 0 min 0 W/m² 22,5 km/h (4 Bft) 98,18 %
02.01.2026 02:30 2,7 °C 2,2 °C -1,7 °C 92 % 998,5 hPa 0,0 l/m² 0 min 0 min 0 W/m² 16,1 km/h (3 Bft) 94,87 %
02.01.2026 02:32 2,7 °C 1,7 °C -1,7 °C 92 % 998,5 hPa 0,0 l/m² 0 min 0 min 0 W/m² 9,7 km/h (2 Bft) 98,21 %
02.01.2026 02:34 2,7 °C 1,7 °C -1,7 °C 92 % 998,4 hPa 0,0 l/m² 0 min 0 min 0 W/m² 16,1 km/h (3 Bft) 97,30 %
02.01.2026 02:36 2,7 °C 1,7 °C -1,7 °C 92 % 998,4 hPa 0,0 l/m² 0 min 0 min 0 W/m² 19,3 km/h (3 Bft) 94,92 %
02.01.2026 02:38 2,7 °C 1,7 °C -1,7 °C 92 % 998,4 hPa 0,0 l/m² 0 min 0 min 0 W/m² 19,3 km/h (3 Bft) 100,00 %
02.01.2026 02:40 2,6 °C 1,7 °C -1,7 °C 92 % 998,4 hPa 0,0 l/m² 0 min 0 min 0 W/m² 16,1 km/h (3 Bft) 96,55 %
02.01.2026 02:42 2,6 °C 1,7 °C -1,7 °C 92 % 998,4 hPa 0,0 l/m² 0 min 0 min 0 W/m² 19,3 km/h (3 Bft) 100,00 %
02.01.2026 02:44 2,6 °C 1,7 °C -1,7 °C 92 % 998,4 hPa 0,0 l/m² 0 min 0 min 0 W/m² 12,9 km/h (3 Bft) 98,15 %
02.01.2026 02:46 2,6 °C 1,7 °C -1,7 °C 92 % 998,4 hPa 0,0 l/m² 0 min 0 min 0 W/m² 16,1 km/h (3 Bft) 100,00 %
02.01.2026 02:48 2,6 °C 1,7 °C -1,7 °C 92 % 998,4 hPa 0,0 l/m² 0 min 0 min 0 W/m² 22,5 km/h (4 Bft) 100,00 %
02.01.2026 02:50 2,6 °C 2,2 °C -1,7 °C 92 % 998,4 hPa 0,0 l/m² 0 min 0 min 0 W/m² 16,1 km/h (3 Bft) 100,00 %
02.01.2026 02:52 2,6 °C 2,2 °C -1,7 °C 92 % 998,5 hPa 0,0 l/m² 0 min 0 min 0 W/m² 16,1 km/h (3 Bft) 100,00 %
02.01.2026 02:54 2,7 °C 2,2 °C -1,7 °C 92 % 998,4 hPa 0,0 l/m² 0 min 0 min 0 W/m² 29,0 km/h (5 Bft) 97,50 %
02.01.2026 02:56 2,7 °C 2,2 °C -1,7 °C 92 % 998,2 hPa 0,0 l/m² 0 min 0 min 0 W/m² 16,1 km/h (3 Bft) 100,00 %
02.01.2026 02:58 2,7 °C 2,2 °C -1,7 °C 91 % 998,3 hPa 0,0 l/m² 0 min 0 min 0 W/m² 12,9 km/h (3 Bft) 97,83 %
02.01.2026 03:02 2,8 °C 2,2 °C -1,7 °C 92 % 998,8 hPa 0,0 l/m² 0 min 4 min 0 W/m² 32,2 km/h (5 Bft) 96,55 %
02.01.2026 03:04 2,7 °C 1,7 °C -2,2 °C 91 % 998,7 hPa 0,0 l/m² 0 min 2 min 0 W/m² 32,2 km/h (5 Bft) 100,00 %
02.01.2026 03:10 1,9 °C 0,6 °C -2,8 °C 91 % 998,9 hPa 0,0 l/m² 0 min 5 min 0 W/m² 25,7 km/h (4 Bft) 82,50 %
02.01.2026 03:12 1,8 °C 0,6 °C -2,8 °C 91 % 998,9 hPa 0,0 l/m² 0 min 2 min 0 W/m² 12,9 km/h (3 Bft) 100,00 %
02.01.2026 03:14 1,6 °C 0,6 °C -3,3 °C 91 % 999,0 hPa 0,0 l/m² 0 min 2 min 0 W/m² 25,7 km/h (4 Bft) 100,00 %
02.01.2026 03:16 1,4 °C 0,0 °C -3,3 °C 91 % 999,0 hPa 0,0 l/m² 0 min 0 min 0 W/m² 16,1 km/h (3 Bft) 97,92 %
02.01.2026 03:18 1,3 °C 0,0 °C -3,3 °C 92 % 999,0 hPa 0,0 l/m² 0 min 2 min 0 W/m² 29,0 km/h (5 Bft) 100,00 %
02.01.2026 03:20 1,3 °C 0,0 °C -3,3 °C 92 % 999,0 hPa 0,0 l/m² 0 min 2 min 0 W/m² 16,1 km/h (3 Bft) 98,04 %
02.01.2026 03:22 1,2 °C 0,0 °C -3,3 °C 92 % 998,9 hPa 0,0 l/m² 0 min 0 min 0 W/m² 16,1 km/h (3 Bft) 100,00 %
02.01.2026 03:24 1,1 °C 0,0 °C -3,3 °C 92 % 998,9 hPa 0,0 l/m² 0 min 0 min 0 W/m² 12,9 km/h (3 Bft) 100,00 %
02.01.2026 03:26 1,1 °C 0,0 °C -3,3 °C 93 % 998,9 hPa 0,0 l/m² 0 min 0 min 0 W/m² 9,7 km/h (2 Bft) 97,30 %
02.01.2026 03:28 1,0 °C 0,0 °C -3,3 °C 93 % 999,0 hPa 0,0 l/m² 0 min 0 min 0 W/m² 12,9 km/h (3 Bft) 98,28 %
02.01.2026 03:30 1,0 °C 0,0 °C -3,3 °C 93 % 998,9 hPa 0,0 l/m² 0 min 0 min 0 W/m² 9,7 km/h (2 Bft) 100,00 %
02.01.2026 03:32 0,9 °C 0,0 °C -3,3 °C 93 % 998,9 hPa 0,0 l/m² 0 min 0 min 0 W/m² 12,9 km/h (3 Bft) 100,00 %
02.01.2026 03:34 0,9 °C 0,0 °C -3,3 °C 93 % 999,0 hPa 0,0 l/m² 0 min 0 min 0 W/m² 6,4 km/h (2 Bft) 98,25 %
02.01.2026 03:36 0,9 °C 0,0 °C -3,3 °C 93 % 999,0 hPa 0,0 l/m² 0 min 0 min 0 W/m² 6,4 km/h (2 Bft) 100,00 %
02.01.2026 03:38 0,9 °C 0,0 °C -3,3 °C 94 % 998,9 hPa 0,0 l/m² 0 min 0 min 0 W/m² 16,1 km/h (3 Bft) 97,87 %
02.01.2026 03:40 0,9 °C 0,0 °C -3,3 °C 94 % 998,9 hPa 0,0 l/m² 0 min 0 min 0 W/m² 16,1 km/h (3 Bft) 100,00 %
02.01.2026 03:42 0,9 °C 0,0 °C -2,8 °C 94 % 998,9 hPa 0,0 l/m² 0 min 0 min 0 W/m² 12,9 km/h (3 Bft) 97,87 %
02.01.2026 03:44 0,9 °C 0,0 °C -2,8 °C 94 % 998,8 hPa 0,0 l/m² 0 min 0 min 0 W/m² 12,9 km/h (3 Bft) 100,00 %
02.01.2026 03:46 0,9 °C 0,0 °C -2,8 °C 94 % 998,7 hPa 0,0 l/m² 0 min 0 min 0 W/m² 9,7 km/h (2 Bft) 97,37 %
02.01.2026 03:48 0,9 °C 0,0 °C -2,8 °C 94 % 998,7 hPa 0,0 l/m² 0 min 0 min 0 W/m² 9,7 km/h (2 Bft) 100,00 %
02.01.2026 03:50 0,9 °C 0,0 °C -2,8 °C 94 % 998,6 hPa 0,0 l/m² 0 min 0 min 0 W/m² 19,3 km/h (3 Bft) 95,65 %
02.01.2026 03:52 0,9 °C 0,0 °C -2,8 °C 94 % 998,7 hPa 0,0 l/m² 0 min 0 min 0 W/m² 12,9 km/h (3 Bft) 100,00 %
02.01.2026 03:54 0,8 °C 0,0 °C -3,3 °C 94 % 998,7 hPa 0,0 l/m² 0 min 0 min 0 W/m² 9,7 km/h (2 Bft) 100,00 %
02.01.2026 03:56 0,8 °C 0,0 °C -3,3 °C 95 % 998,7 hPa 0,0 l/m² 0 min 0 min 0 W/m² 9,7 km/h (2 Bft) 95,65 %
02.01.2026 03:58 0,8 °C 0,0 °C -3,3 °C 94 % 998,7 hPa 0,0 l/m² 0 min 0 min 0 W/m² 12,9 km/h (3 Bft) 100,00 %
02.01.2026 04:00 0,8 °C 0,0 °C -3,3 °C 94 % 998,7 hPa 0,0 l/m² 0 min 0 min 0 W/m² 6,4 km/h (2 Bft) 92,86 %
02.01.2026 04:02 0,8 °C 0,0 °C -3,3 °C 95 % 998,7 hPa 0,0 l/m² 0 min 0 min 0 W/m² 6,4 km/h (2 Bft) 100,00 %
02.01.2026 04:04 0,8 °C 0,0 °C -3,3 °C 95 % 998,6 hPa 0,0 l/m² 0 min 0 min 0 W/m² 12,9 km/h (3 Bft) 95,83 %
02.01.2026 04:08 0,7 °C 0,0 °C -3,3 °C 95 % 998,6 hPa 0,0 l/m² 0 min 0 min 0 W/m² 12,9 km/h (3 Bft) 91,58 %
02.01.2026 04:10 0,7 °C 0,0 °C -3,3 °C 95 % 998,6 hPa 0,0 l/m² 0 min 0 min 0 W/m² 12,9 km/h (3 Bft) 93,62 %
02.01.2026 04:12 0,7 °C 0,0 °C -3,3 °C 95 % 998,6 hPa 0,0 l/m² 0 min 0 min 0 W/m² 12,9 km/h (3 Bft) 94,00 %
02.01.2026 04:14 0,7 °C 0,0 °C -3,3 °C 95 % 998,6 hPa 0,0 l/m² 0 min 0 min 0 W/m² 9,7 km/h (2 Bft) 90,91 %
02.01.2026 04:16 0,7 °C 0,0 °C -3,3 °C 95 % 998,6 hPa 0,0 l/m² 0 min 0 min 0 W/m² 12,9 km/h (3 Bft) 93,88 %
02.01.2026 04:18 0,7 °C 0,0 °C -2,8 °C 95 % 998,7 hPa 0,0 l/m² 0 min 0 min 0 W/m² 12,9 km/h (3 Bft) 85,71 %
02.01.2026 04:20 0,7 °C 0,0 °C -2,8 °C 95 % 998,6 hPa 0,0 l/m² 0 min 0 min 0 W/m² 6,4 km/h (2 Bft) 94,83 %
02.01.2026 04:22 0,7 °C 0,0 °C -2,8 °C 95 % 998,7 hPa 0,0 l/m² 0 min 0 min 0 W/m² 6,4 km/h (2 Bft) 91,67 %
02.01.2026 04:24 0,7 °C 0,0 °C -3,3 °C 95 % 998,7 hPa 0,0 l/m² 0 min 0 min 0 W/m² 12,9 km/h (3 Bft) 89,66 %
02.01.2026 04:26 0,7 °C 0,0 °C -3,3 °C 95 % 998,8 hPa 0,0 l/m² 0 min 0 min 0 W/m² 12,9 km/h (3 Bft) 93,75 %
02.01.2026 04:28 0,7 °C 0,0 °C -3,9 °C 95 % 998,9 hPa 0,0 l/m² 0 min 0 min 0 W/m² 19,3 km/h (3 Bft) 95,24 %
02.01.2026 04:30 0,6 °C 0,0 °C -3,9 °C 95 % 999,0 hPa 0,0 l/m² 0 min 0 min 0 W/m² 12,9 km/h (3 Bft) 92,16 %
02.01.2026 04:32 0,6 °C 0,0 °C -3,9 °C 95 % 998,8 hPa 0,0 l/m² 0 min 0 min 0 W/m² 16,1 km/h (3 Bft) 95,45 %
02.01.2026 04:34 0,6 °C 0,0 °C -3,9 °C 95 % 998,8 hPa 0,0 l/m² 0 min 0 min 0 W/m² 25,7 km/h (4 Bft) 96,00 %
02.01.2026 04:36 0,6 °C 0,0 °C -3,9 °C 95 % 998,9 hPa 0,0 l/m² 0 min 0 min 0 W/m² 9,7 km/h (2 Bft) 95,74 %
02.01.2026 04:40 0,6 °C 0,0 °C -3,9 °C 96 % 998,8 hPa 0,0 l/m² 0 min 0 min 0 W/m² 25,7 km/h (4 Bft) 94,57 %
02.01.2026 04:44 0,5 °C 0,0 °C -3,3 °C 96 % 998,7 hPa 0,0 l/m² 0 min 0 min 0 W/m² 12,9 km/h (3 Bft) 97,78 %
02.01.2026 04:48 0,5 °C 0,0 °C -3,3 °C 96 % 998,6 hPa 0,0 l/m² 0 min 0 min 0 W/m² 19,3 km/h (3 Bft) 95,96 %
02.01.2026 04:50 0,5 °C 0,0 °C -3,3 °C 96 % 998,7 hPa 0,0 l/m² 0 min 0 min 0 W/m² 22,5 km/h (4 Bft) 97,14 %
02.01.2026 04:52 0,5 °C 0,0 °C -3,3 °C 96 % 998,6 hPa 0,0 l/m² 0 min 0 min 0 W/m² 19,3 km/h (3 Bft) 98,18 %
02.01.2026 04:54 0,6 °C 0,0 °C -3,3 °C 96 % 998,6 hPa 0,0 l/m² 0 min 0 min 0 W/m² 29,0 km/h (5 Bft) 98,00 %
02.01.2026 04:56 0,6 °C 0,0 °C -3,3 °C 96 % 998,6 hPa 0,0 l/m² 0 min 0 min 0 W/m² 16,1 km/h (3 Bft) 97,73 %
02.01.2026 04:58 0,6 °C 0,0 °C -3,3 °C 96 % 998,6 hPa 0,0 l/m² 0 min 0 min 0 W/m² 19,3 km/h (3 Bft) 96,00 %
02.01.2026 05:00 0,6 °C 0,0 °C -3,3 °C 96 % 998,7 hPa 0,0 l/m² 0 min 0 min 0 W/m² 12,9 km/h (3 Bft) 100,00 %
02.01.2026 05:02 0,6 °C 0,0 °C -3,3 °C 96 % 998,7 hPa 0,0 l/m² 0 min 0 min 0 W/m² 41,8 km/h (6 Bft) 100,00 %
02.01.2026 05:04 0,6 °C 0,0 °C -3,3 °C 96 % 998,6 hPa 0,0 l/m² 0 min 0 min 0 W/m² 16,1 km/h (3 Bft) 97,67 %
02.01.2026 05:08 0,6 °C 0,0 °C -3,3 °C 96 % 998,6 hPa 0,0 l/m² 0 min 0 min 0 W/m² 19,3 km/h (3 Bft) 98,99 %
02.01.2026 05:10 0,6 °C 0,0 °C -3,3 °C 96 % 998,6 hPa 0,0 l/m² 0 min 0 min 0 W/m² 19,3 km/h (3 Bft) 100,00 %
02.01.2026 05:12 0,6 °C 0,0 °C -3,3 °C 96 % 998,7 hPa 0,0 l/m² 0 min 0 min 0 W/m² 25,7 km/h (4 Bft) 100,00 %
02.01.2026 05:14 0,6 °C 0,0 °C -3,3 °C 96 % 998,7 hPa 0,0 l/m² 0 min 0 min 0 W/m² 22,5 km/h (4 Bft) 100,00 %
02.01.2026 05:16 0,6 °C 0,0 °C -3,3 °C 96 % 998,7 hPa 0,0 l/m² 0 min 0 min 0 W/m² 12,9 km/h (3 Bft) 100,00 %
02.01.2026 05:18 0,6 °C 0,0 °C -3,3 °C 96 % 998,6 hPa 0,0 l/m² 0 min 0 min 0 W/m² 16,1 km/h (3 Bft) 100,00 %
02.01.2026 05:20 0,6 °C 0,0 °C -3,3 °C 96 % 998,7 hPa 0,0 l/m² 0 min 0 min 0 W/m² 19,3 km/h (3 Bft) 100,00 %
02.01.2026 05:22 0,6 °C 0,0 °C -3,3 °C 96 % 998,6 hPa 0,0 l/m² 0 min 0 min 0 W/m² 19,3 km/h (3 Bft) 100,00 %
02.01.2026 05:24 0,6 °C 0,0 °C -3,3 °C 97 % 998,6 hPa 0,0 l/m² 0 min 0 min 0 W/m² 25,7 km/h (4 Bft) 100,00 %
02.01.2026 05:26 0,6 °C 0,0 °C -3,3 °C 97 % 998,7 hPa 0,0 l/m² 0 min 0 min 0 W/m² 16,1 km/h (3 Bft) 100,00 %
02.01.2026 05:28 0,6 °C 0,0 °C -3,3 °C 97 % 998,7 hPa 0,0 l/m² 0 min 0 min 0 W/m² 16,1 km/h (3 Bft) 100,00 %
02.01.2026 05:30 0,6 °C 0,0 °C -3,3 °C 97 % 998,7 hPa 0,0 l/m² 0 min 0 min 0 W/m² 29,0 km/h (5 Bft) 100,00 %
02.01.2026 05:32 0,6 °C 0,0 °C -3,3 °C 97 % 998,7 hPa 0,0 l/m² 0 min 0 min 0 W/m² 22,5 km/h (4 Bft) 100,00 %
02.01.2026 05:34 0,6 °C 0,0 °C -3,3 °C 97 % 998,6 hPa 0,0 l/m² 0 min 0 min 0 W/m² 25,7 km/h (4 Bft) 100,00 %
02.01.2026 05:36 0,6 °C 0,0 °C -3,3 °C 97 % 998,6 hPa 0,0 l/m² 0 min 0 min 0 W/m² 22,5 km/h (4 Bft) 100,00 %
02.01.2026 05:38 0,6 °C 0,0 °C -3,3 °C 97 % 998,5 hPa 0,0 l/m² 0 min 0 min 0 W/m² 16,1 km/h (3 Bft) 100,00 %
02.01.2026 05:40 0,6 °C 0,0 °C -3,3 °C 97 % 998,5 hPa 0,0 l/m² 0 min 0 min 0 W/m² 12,9 km/h (3 Bft) 100,00 %
02.01.2026 05:42 0,6 °C 0,0 °C -3,3 °C 97 % 998,5 hPa 0,0 l/m² 0 min 0 min 0 W/m² 19,3 km/h (3 Bft) 97,78 %
02.01.2026 05:44 0,6 °C 0,0 °C -3,3 °C 97 % 998,5 hPa 0,0 l/m² 0 min 0 min 0 W/m² 12,9 km/h (3 Bft) 98,08 %
02.01.2026 05:46 0,6 °C 0,0 °C -3,3 °C 97 % 998,5 hPa 0,0 l/m² 0 min 0 min 0 W/m² 25,7 km/h (4 Bft) 97,83 %
02.01.2026 05:48 0,6 °C 0,0 °C -3,3 °C 97 % 998,4 hPa 0,0 l/m² 0 min 0 min 0 W/m² 16,1 km/h (3 Bft) 97,92 %
02.01.2026 05:50 0,6 °C 0,0 °C -3,3 °C 97 % 998,5 hPa 0,0 l/m² 0 min 0 min 0 W/m² 12,9 km/h (3 Bft) 95,45 %
02.01.2026 05:52 0,6 °C 0,0 °C -3,3 °C 97 % 998,5 hPa 0,0 l/m² 0 min 0 min 0 W/m² 19,3 km/h (3 Bft) 97,96 %
02.01.2026 05:54 0,6 °C 0,0 °C -3,3 °C 97 % 998,6 hPa 0,0 l/m² 0 min 0 min 0 W/m² 19,3 km/h (3 Bft) 97,78 %
02.01.2026 05:56 0,6 °C 0,0 °C -3,3 °C 97 % 998,5 hPa 0,0 l/m² 0 min 0 min 0 W/m² 16,1 km/h (3 Bft) 95,92 %
02.01.2026 05:58 0,6 °C 0,0 °C -3,3 °C 97 % 998,6 hPa 0,0 l/m² 0 min 0 min 0 W/m² 16,1 km/h (3 Bft) 97,67 %
02.01.2026 06:00 0,6 °C 0,0 °C -3,3 °C 97 % 998,7 hPa 0,0 l/m² 0 min 0 min 0 W/m² 16,1 km/h (3 Bft) 98,04 %
02.01.2026 06:02 0,6 °C 0,0 °C -3,3 °C 97 % 998,6 hPa 0,0 l/m² 0 min 0 min 0 W/m² 16,1 km/h (3 Bft) 92,86 %
02.01.2026 06:04 0,6 °C 0,0 °C -3,3 °C 96 % 998,6 hPa 0,0 l/m² 0 min 0 min 0 W/m² 16,1 km/h (3 Bft) 96,08 %
02.01.2026 06:08 0,6 °C 0,0 °C -3,3 °C 96 % 998,8 hPa 0,0 l/m² 0 min 0 min 0 W/m² 29,0 km/h (5 Bft) 96,39 %
02.01.2026 06:10 0,6 °C 0,0 °C -2,8 °C 96 % 998,8 hPa 0,0 l/m² 0 min 0 min 0 W/m² 16,1 km/h (3 Bft) 98,31 %
02.01.2026 06:14 0,7 °C 0,0 °C -2,8 °C 96 % 998,9 hPa 0,0 l/m² 0 min 0 min 0 W/m² 19,3 km/h (3 Bft) 95,74 %
02.01.2026 06:16 0,7 °C 0,0 °C -2,8 °C 96 % 998,8 hPa 0,0 l/m² 0 min 0 min 0 W/m² 22,5 km/h (4 Bft) 97,78 %
02.01.2026 06:18 0,7 °C 0,0 °C -2,8 °C 96 % 998,9 hPa 0,0 l/m² 0 min 0 min 0 W/m² 19,3 km/h (3 Bft) 100,00 %
02.01.2026 06:20 0,7 °C 0,0 °C -3,3 °C 96 % 999,0 hPa 0,0 l/m² 0 min 0 min 0 W/m² 22,5 km/h (4 Bft) 100,00 %
02.01.2026 06:22 0,6 °C 0,0 °C -3,3 °C 96 % 999,0 hPa 0,0 l/m² 0 min 0 min 0 W/m² 16,1 km/h (3 Bft) 95,74 %
02.01.2026 06:24 0,6 °C 0,0 °C -3,3 °C 96 % 998,9 hPa 0,0 l/m² 0 min 0 min 0 W/m² 19,3 km/h (3 Bft) 97,83 %
02.01.2026 06:26 0,6 °C 0,0 °C -3,3 °C 96 % 998,9 hPa 0,0 l/m² 0 min 0 min 0 W/m² 16,1 km/h (3 Bft) 97,87 %
02.01.2026 06:28 0,6 °C 0,0 °C -3,3 °C 96 % 999,0 hPa 0,0 l/m² 0 min 0 min 0 W/m² 12,9 km/h (3 Bft) 97,87 %
02.01.2026 06:30 0,6 °C -0,6 °C -3,3 °C 96 % 998,9 hPa 0,0 l/m² 0 min 0 min 0 W/m² 12,9 km/h (3 Bft) 95,74 %
02.01.2026 06:32 0,5 °C -0,6 °C -3,3 °C 96 % 998,8 hPa 0,0 l/m² 0 min 0 min 0 W/m² 16,1 km/h (3 Bft) 97,87 %
02.01.2026 06:34 0,4 °C -0,6 °C -3,3 °C 96 % 998,8 hPa 0,0 l/m² 0 min 0 min 0 W/m² 12,9 km/h (3 Bft) 97,87 %
02.01.2026 06:36 0,4 °C 0,0 °C -3,3 °C 96 % 998,8 hPa 0,0 l/m² 0 min 0 min 0 W/m² 12,9 km/h (3 Bft) 95,65 %
02.01.2026 06:38 0,4 °C 0,0 °C -3,3 °C 96 % 998,8 hPa 0,0 l/m² 0 min 0 min 0 W/m² 9,7 km/h (2 Bft) 97,87 %
02.01.2026 06:40 0,4 °C 0,0 °C -3,3 °C 96 % 998,9 hPa 0,0 l/m² 0 min 0 min 0 W/m² 9,7 km/h (2 Bft) 97,56 %
02.01.2026 06:42 0,4 °C 0,0 °C -3,3 °C 96 % 998,9 hPa 0,0 l/m² 0 min 0 min 0 W/m² 6,4 km/h (2 Bft) 96,00 %
02.01.2026 06:44 0,4 °C 0,0 °C -3,3 °C 96 % 998,9 hPa 0,0 l/m² 0 min 0 min 0 W/m² 12,9 km/h (3 Bft) 96,00 %
02.01.2026 06:46 0,4 °C 0,0 °C -3,3 °C 96 % 998,9 hPa 0,0 l/m² 0 min 0 min 0 W/m² 12,9 km/h (3 Bft) 95,74 %
02.01.2026 06:48 0,4 °C 0,0 °C -3,3 °C 96 % 999,0 hPa 0,0 l/m² 0 min 0 min 0 W/m² 12,9 km/h (3 Bft) 97,83 %
02.01.2026 06:50 0,4 °C -0,6 °C -3,3 °C 96 % 999,0 hPa 0,0 l/m² 0 min 0 min 0 W/m² 12,9 km/h (3 Bft) 97,56 %
02.01.2026 06:52 0,4 °C -0,6 °C -3,3 °C 96 % 999,0 hPa 0,0 l/m² 0 min 0 min 0 W/m² 12,9 km/h (3 Bft) 97,96 %
02.01.2026 06:54 0,4 °C -0,6 °C -3,3 °C 96 % 998,9 hPa 0,0 l/m² 0 min 0 min 0 W/m² 3,2 km/h (1 Bft) 58,70 %
02.01.2026 06:56 0,4 °C -0,6 °C -3,3 °C 96 % 998,9 hPa 0,0 l/m² 0 min 0 min 0 W/m² 9,7 km/h (2 Bft) 96,08 %
02.01.2026 06:58 0,3 °C -0,6 °C -3,3 °C 96 % 998,9 hPa 0,0 l/m² 0 min 0 min 0 W/m² 6,4 km/h (2 Bft) 97,56 %
02.01.2026 07:00 0,3 °C -0,6 °C -3,9 °C 96 % 999,0 hPa 0,2 l/m² 0 min 0 min 0 W/m² 6,4 km/h (2 Bft) 95,65 %
02.01.2026 07:02 0,3 °C -0,6 °C -3,9 °C 96 % 998,9 hPa 0,0 l/m² 0 min 0 min 0 W/m² 6,4 km/h (2 Bft) 97,78 %
02.01.2026 07:04 0,3 °C -0,6 °C -3,9 °C 97 % 998,9 hPa 0,0 l/m² 0 min 0 min 0 W/m² 6,4 km/h (2 Bft) 100,00 %
02.01.2026 07:08 0,3 °C -0,6 °C -3,9 °C 97 % 999,0 hPa 0,0 l/m² 0 min 0 min 0 W/m² 12,9 km/h (3 Bft) 100,00 %
02.01.2026 07:10 0,3 °C -0,6 °C -3,3 °C 97 % 999,1 hPa 0,0 l/m² 0 min 0 min 0 W/m² 12,9 km/h (3 Bft) 97,96 %
02.01.2026 07:12 0,3 °C -0,6 °C -3,3 °C 97 % 999,1 hPa 0,0 l/m² 0 min 0 min 0 W/m² 6,4 km/h (2 Bft) 100,00 %
02.01.2026 07:16 0,3 °C -0,6 °C -3,3 °C 97 % 999,1 hPa 0,0 l/m² 0 min 0 min 0 W/m² 6,4 km/h (2 Bft) 99,01 %
02.01.2026 07:20 0,3 °C -0,6 °C -3,3 °C 97 % 999,1 hPa 0,0 l/m² 0 min 0 min 0 W/m² 6,4 km/h (2 Bft) 97,87 %
02.01.2026 07:24 0,2 °C -0,6 °C -3,3 °C 97 % 999,1 hPa 0,0 l/m² 0 min 0 min 0 W/m² 3,2 km/h (1 Bft) 96,51 %
02.01.2026 07:26 0,2 °C -0,6 °C -3,3 °C 97 % 999,1 hPa 0,0 l/m² 0 min 0 min 0 W/m² 3,2 km/h (1 Bft) 95,31 %
02.01.2026 07:27 0,2 °C -0,6 °C -3,3 °C 97 % 999,1 hPa 0,0 l/m² 0 min 0 min 0 W/m² 3,2 km/h (1 Bft) 96,75 %
02.01.2026 07:32 0,2 °C -0,6 °C -3,3 °C 97 % 999,2 hPa 0,0 l/m² 0 min 0 min 0 W/m² 3,2 km/h (1 Bft) 97,92 %
02.01.2026 07:36 0,2 °C -0,6 °C -3,3 °C 97 % 999,4 hPa 0,0 l/m² 0 min 0 min 0 W/m² 6,4 km/h (2 Bft) 94,51 %
02.01.2026 07:40 0,2 °C -0,6 °C -3,3 °C 97 % 999,2 hPa 0,0 l/m² 0 min 0 min 0 W/m² 3,2 km/h (1 Bft) 95,79 %
02.01.2026 07:44 0,2 °C -0,6 °C -3,3 °C 97 % 999,3 hPa 0,0 l/m² 0 min 0 min 0 W/m² 6,4 km/h (2 Bft) 95,74 %
02.01.2026 07:48 0,2 °C -0,6 °C -3,3 °C 97 % 999,4 hPa 0,0 l/m² 0 min 0 min 0 W/m² 6,4 km/h (2 Bft) 94,38 %
02.01.2026 07:52 0,2 °C -0,6 °C -3,3 °C 97 % 999,4 hPa 0,0 l/m² 0 min 0 min 0 W/m² 6,4 km/h (2 Bft) 92,55 %
02.01.2026 07:56 0,2 °C -0,6 °C -3,3 °C 97 % 999,4 hPa 0,0 l/m² 0 min 0 min 0 W/m² 6,4 km/h (2 Bft) 94,90 %
02.01.2026 08:00 0,2 °C -0,6 °C -3,3 °C 97 % 999,4 hPa 0,0 l/m² 0 min 0 min 0 W/m² 19,3 km/h (3 Bft) 95,51 %
02.01.2026 08:04 0,2 °C -0,6 °C -3,3 °C 97 % 999,3 hPa 0,0 l/m² 0 min 0 min 0 W/m² 19,3 km/h (3 Bft) 94,90 %
02.01.2026 08:07 0,2 °C -0,6 °C -3,3 °C 97 % 999,4 hPa 0,0 l/m² 0 min 0 min 0 W/m² 6,4 km/h (2 Bft) 97,30 %
02.01.2026 08:08 0,2 °C -0,6 °C -3,3 °C 97 % 999,5 hPa 0,0 l/m² 0 min 0 min 0 W/m² 6,4 km/h (2 Bft) 96,53 %
02.01.2026 08:10 0,2 °C -0,6 °C -3,3 °C 97 % 999,4 hPa 0,0 l/m² 0 min 0 min 0 W/m² 6,4 km/h (2 Bft) 99,12 %
02.01.2026 08:14 0,2 °C -0,6 °C -3,3 °C 97 % 999,5 hPa 0,0 l/m² 0 min 0 min 0 W/m² 3,2 km/h (1 Bft) 97,14 %
02.01.2026 08:18 0,2 °C -0,6 °C -3,3 °C 97 % 999,4 hPa 0,0 l/m² 0 min 0 min 0 W/m² 6,4 km/h (2 Bft) 97,87 %
02.01.2026 08:22 0,2 °C -0,6 °C -3,3 °C 97 % 999,3 hPa 0,0 l/m² 0 min 0 min 0 W/m² 6,4 km/h (2 Bft) 100,00 %
02.01.2026 08:24 0,2 °C -0,6 °C -3,3 °C 97 % 999,3 hPa 0,0 l/m² 0 min 0 min 0 W/m² 6,4 km/h (2 Bft) 100,00 %
02.01.2026 08:28 0,2 °C -0,6 °C -3,3 °C 97 % 999,3 hPa 0,0 l/m² 0 min 0 min 0 W/m² 6,4 km/h (2 Bft) 98,86 %
02.01.2026 08:31 0,2 °C -0,6 °C -3,3 °C 97 % 999,3 hPa 0,0 l/m² 0 min 0 min 0 W/m² 6,4 km/h (2 Bft) 100,00 %
02.01.2026 08:35 0,2 °C -0,6 °C -3,3 °C 97 % 999,4 hPa 0,0 l/m² 0 min 0 min 0 W/m² 9,7 km/h (2 Bft) 100,00 %
02.01.2026 08:40 0,2 °C -0,6 °C -3,3 °C 97 % 999,3 hPa 0,0 l/m² 0 min 0 min 0 W/m² 3,2 km/h (1 Bft) 97,40 %
02.01.2026 08:44 0,2 °C -0,6 °C -3,3 °C 97 % 999,3 hPa 0,0 l/m² 0 min 0 min 0 W/m² 6,4 km/h (2 Bft) 99,05 %
02.01.2026 08:45 0,1 °C -0,6 °C -3,3 °C 97 % 999,3 hPa 0,0 l/m² 0 min 0 min 0 W/m² 9,7 km/h (2 Bft) 96,80 %
02.01.2026 08:50 0,2 °C -0,6 °C -3,3 °C 97 % 999,3 hPa 0,0 l/m² 0 min 0 min 0 W/m² 9,7 km/h (2 Bft) 98,25 %
02.01.2026 08:52 0,2 °C -0,6 °C -3,3 °C 97 % 999,4 hPa 0,0 l/m² 0 min 0 min 0 W/m² 3,2 km/h (1 Bft) 97,30 %
02.01.2026 08:54 0,2 °C -0,6 °C -3,3 °C 97 % 999,4 hPa 0,0 l/m² 0 min 0 min 0 W/m² 3,2 km/h (1 Bft) 98,15 %
02.01.2026 08:56 0,2 °C -0,6 °C -3,3 °C 97 % 999,4 hPa 0,0 l/m² 0 min 0 min 0 W/m² 3,2 km/h (1 Bft) 97,50 %
02.01.2026 08:58 0,2 °C 0,0 °C -3,3 °C 98 % 999,3 hPa 0,0 l/m² 0 min 0 min 0 W/m² 3,2 km/h (1 Bft) 97,83 %
02.01.2026 09:00 0,2 °C 0,0 °C -3,3 °C 98 % 999,3 hPa 0,0 l/m² 0 min 0 min 0 W/m² 6,4 km/h (2 Bft) 94,55 %
02.01.2026 09:02 0,2 °C 0,0 °C -3,3 °C 98 % 999,2 hPa 0,0 l/m² 0 min 0 min 0 W/m² 6,4 km/h (2 Bft) 94,87 %
02.01.2026 09:04 0,2 °C 0,0 °C -3,3 °C 98 % 999,3 hPa 0,0 l/m² 0 min 0 min 0 W/m² 6,4 km/h (2 Bft) 93,75 %
02.01.2026 09:10 0,2 °C 0,0 °C -3,3 °C 97 % 999,4 hPa 0,0 l/m² 0 min 0 min 0 W/m² 9,7 km/h (2 Bft) 96,43 %
02.01.2026 09:12 0,2 °C 0,0 °C -3,3 °C 97 % 999,4 hPa 0,0 l/m² 0 min 0 min 5 W/m² 6,4 km/h (2 Bft) 98,11 %
02.01.2026 09:14 0,2 °C 0,0 °C -3,3 °C 97 % 999,4 hPa 0,0 l/m² 0 min 0 min 5 W/m² 12,9 km/h (3 Bft) 98,00 %
02.01.2026 09:16 0,2 °C 0,0 °C -3,3 °C 97 % 999,4 hPa 0,0 l/m² 0 min 0 min 5 W/m² 6,4 km/h (2 Bft) 97,92 %
02.01.2026 09:18 0,2 °C 0,0 °C -3,3 °C 97 % 999,4 hPa 0,0 l/m² 0 min 0 min 5 W/m² 6,4 km/h (2 Bft) 97,73 %
02.01.2026 09:20 0,2 °C 0,0 °C -3,3 °C 97 % 999,4 hPa 0,0 l/m² 0 min 0 min 5 W/m² 9,7 km/h (2 Bft) 97,92 %
02.01.2026 09:22 0,2 °C -0,6 °C -3,3 °C 97 % 999,5 hPa 0,0 l/m² 0 min 0 min 5 W/m² 9,7 km/h (2 Bft) 97,30 %
02.01.2026 09:24 0,2 °C -0,6 °C -3,3 °C 97 % 999,5 hPa 0,0 l/m² 0 min 0 min 5 W/m² 9,7 km/h (2 Bft) 93,75 %
02.01.2026 09:26 0,2 °C 0,0 °C -3,3 °C 97 % 999,5 hPa 0,0 l/m² 0 min 0 min 5 W/m² 3,2 km/h (1 Bft) 95,74 %
02.01.2026 09:28 0,2 °C 0,0 °C -3,3 °C 97 % 999,6 hPa 0,0 l/m² 0 min 0 min 5 W/m² 6,4 km/h (2 Bft) 95,74 %
02.01.2026 09:30 0,2 °C 0,0 °C -3,3 °C 97 % 999,6 hPa 0,0 l/m² 0 min 0 min 5 W/m² 6,4 km/h (2 Bft) 97,87 %
02.01.2026 09:32 0,3 °C 0,0 °C -3,3 °C 97 % 999,6 hPa 0,0 l/m² 0 min 0 min 7 W/m² 3,2 km/h (1 Bft) 98,11 %
02.01.2026 09:34 0,3 °C 0,0 °C -3,3 °C 97 % 999,6 hPa 0,0 l/m² 0 min 0 min 9 W/m² 6,4 km/h (2 Bft) 97,92 %
02.01.2026 09:36 0,4 °C 0,0 °C -3,3 °C 97 % 999,6 hPa 0,0 l/m² 0 min 0 min 9 W/m² 6,4 km/h (2 Bft) 97,87 %
02.01.2026 09:38 0,4 °C 0,0 °C -3,3 °C 97 % 999,6 hPa 0,2 l/m² 0 min 0 min 10 W/m² 12,9 km/h (3 Bft) 97,83 %
02.01.2026 09:40 0,4 °C 0,0 °C -3,3 °C 96 % 999,7 hPa 0,0 l/m² 0 min 0 min 15 W/m² 6,4 km/h (2 Bft) 97,87 %
02.01.2026 09:42 0,4 °C 0,6 °C -3,3 °C 96 % 999,6 hPa 0,0 l/m² 0 min 0 min 20 W/m² 6,4 km/h (2 Bft) 97,96 %
02.01.2026 09:44 0,6 °C 0,6 °C -3,3 °C 96 % 999,6 hPa 0,0 l/m² 0 min 0 min 23 W/m² 6,4 km/h (2 Bft) 91,89 %
02.01.2026 09:46 0,6 °C 0,6 °C -3,3 °C 96 % 999,6 hPa 0,0 l/m² 0 min 0 min 20 W/m² 16,1 km/h (3 Bft) 97,87 %
02.01.2026 09:48 0,6 °C 0,6 °C -3,3 °C 96 % 999,6 hPa 0,0 l/m² 0 min 0 min 19 W/m² 9,7 km/h (2 Bft) 97,87 %
02.01.2026 09:50 0,6 °C 0,6 °C -3,3 °C 96 % 999,6 hPa 0,0 l/m² 0 min 0 min 18 W/m² 3,2 km/h (1 Bft) 52,38 %
02.01.2026 09:52 0,6 °C 0,6 °C -3,3 °C 96 % 999,6 hPa 0,0 l/m² 0 min 0 min 13 W/m² 3,2 km/h (1 Bft) 97,96 %
02.01.2026 09:54 0,7 °C 0,6 °C -3,3 °C 95 % 999,5 hPa 0,0 l/m² 0 min 0 min 12 W/m² 6,4 km/h (2 Bft) 100,00 %
02.01.2026 09:56 0,7 °C 0,6 °C -3,3 °C 95 % 999,6 hPa 0,0 l/m² 0 min 0 min 11 W/m² 16,1 km/h (3 Bft) 97,92 %
02.01.2026 09:58 0,7 °C 0,6 °C -3,3 °C 95 % 999,5 hPa 0,0 l/m² 0 min 0 min 13 W/m² 6,4 km/h (2 Bft) 100,00 %
02.01.2026 10:00 0,8 °C 0,6 °C -3,3 °C 95 % 999,6 hPa 0,0 l/m² 0 min 0 min 17 W/m² 6,4 km/h (2 Bft) 97,30 %
02.01.2026 10:02 0,8 °C 0,6 °C -3,3 °C 95 % 999,6 hPa 0,0 l/m² 0 min 0 min 26 W/m² 9,7 km/h (2 Bft) 100,00 %
02.01.2026 10:04 0,8 °C 0,6 °C -3,3 °C 94 % 999,6 hPa 0,0 l/m² 0 min 0 min 33 W/m² 6,4 km/h (2 Bft) 100,00 %
02.01.2026 10:08 0,9 °C 1,1 °C -3,3 °C 94 % 999,7 hPa 0,0 l/m² 0 min 0 min 32 W/m² 12,9 km/h (3 Bft) 98,96 %
02.01.2026 10:10 1,0 °C 1,1 °C -3,3 °C 94 % 999,7 hPa 0,0 l/m² 0 min 0 min 33 W/m² 12,9 km/h (3 Bft) 100,00 %
02.01.2026 10:12 1,1 °C 1,1 °C -3,3 °C 93 % 999,7 hPa 0,0 l/m² 0 min 0 min 29 W/m² 9,7 km/h (2 Bft) 95,83 %
02.01.2026 10:14 1,1 °C 1,1 °C -3,3 °C 93 % 999,7 hPa 0,0 l/m² 0 min 0 min 19 W/m² 12,9 km/h (3 Bft) 100,00 %
02.01.2026 10:16 1,1 °C 0,6 °C -3,3 °C 93 % 999,8 hPa 0,0 l/m² 0 min 0 min 15 W/m² 12,9 km/h (3 Bft) 100,00 %
02.01.2026 10:18 1,1 °C 0,6 °C -3,3 °C 93 % 999,8 hPa 0,0 l/m² 0 min 0 min 13 W/m² 16,1 km/h (3 Bft) 100,00 %
02.01.2026 10:20 1,0 °C 0,6 °C -3,3 °C 93 % 999,8 hPa 0,0 l/m² 0 min 0 min 14 W/m² 12,9 km/h (3 Bft) 100,00 %
02.01.2026 10:22 1,0 °C 0,6 °C -3,3 °C 92 % 999,9 hPa 0,2 l/m² 0 min 0 min 12 W/m² 12,9 km/h (3 Bft) 100,00 %
02.01.2026 10:24 1,0 °C 0,6 °C -3,3 °C 92 % 999,9 hPa 0,0 l/m² 0 min 0 min 11 W/m² 12,9 km/h (3 Bft) 100,00 %
02.01.2026 10:26 1,0 °C 0,6 °C -3,3 °C 92 % 999,8 hPa 0,0 l/m² 0 min 0 min 11 W/m² 12,9 km/h (3 Bft) 97,44 %
02.01.2026 10:28 1,0 °C 0,6 °C -3,3 °C 92 % 999,9 hPa 0,0 l/m² 0 min 0 min 13 W/m² 12,9 km/h (3 Bft) 100,00 %
02.01.2026 10:30 1,0 °C 0,6 °C -3,3 °C 92 % 999,9 hPa 0,0 l/m² 0 min 0 min 16 W/m² 12,9 km/h (3 Bft) 95,65 %
02.01.2026 10:32 1,1 °C 0,6 °C -3,3 °C 92 % 999,9 hPa 0,0 l/m² 0 min 0 min 20 W/m² 12,9 km/h (3 Bft) 97,78 %
02.01.2026 10:34 1,1 °C 0,6 °C -3,3 °C 92 % 999,9 hPa 0,0 l/m² 0 min 0 min 26 W/m² 12,9 km/h (3 Bft) 97,96 %
02.01.2026 10:36 1,1 °C 0,6 °C -2,8 °C 91 % 999,9 hPa 0,0 l/m² 0 min 0 min 26 W/m² 25,7 km/h (4 Bft) 98,11 %
02.01.2026 10:38 1,2 °C 1,1 °C -2,8 °C 91 % 1000,0 hPa 0,0 l/m² 0 min 0 min 27 W/m² 12,9 km/h (3 Bft) 97,87 %
02.01.2026 10:40 1,2 °C 1,1 °C -2,8 °C 91 % 1000,0 hPa 0,0 l/m² 0 min 0 min 31 W/m² 6,4 km/h (2 Bft) 97,44 %
02.01.2026 10:42 1,2 °C 1,1 °C -2,8 °C 91 % 1000,0 hPa 0,0 l/m² 0 min 0 min 40 W/m² 16,1 km/h (3 Bft) 97,92 %
02.01.2026 10:44 1,2 °C 1,7 °C -2,8 °C 91 % 1000,0 hPa 0,0 l/m² 0 min 0 min 48 W/m² 12,9 km/h (3 Bft) 97,87 %
02.01.2026 10:46 1,3 °C 1,7 °C -2,8 °C 91 % 1000,0 hPa 0,0 l/m² 0 min 0 min 43 W/m² 6,4 km/h (2 Bft) 97,87 %
02.01.2026 10:48 1,3 °C 1,7 °C -2,8 °C 91 % 1000,1 hPa 0,0 l/m² 0 min 0 min 30 W/m² 16,1 km/h (3 Bft) 96,36 %
02.01.2026 10:50 1,3 °C 1,1 °C -2,8 °C 91 % 1000,0 hPa 0,0 l/m² 0 min 0 min 26 W/m² 16,1 km/h (3 Bft) 97,92 %
02.01.2026 10:52 1,3 °C 1,1 °C -2,8 °C 91 % 1000,2 hPa 0,0 l/m² 0 min 0 min 27 W/m² 12,9 km/h (3 Bft) 97,37 %
02.01.2026 10:54 1,3 °C 1,1 °C -2,8 °C 91 % 1000,1 hPa 0,0 l/m² 0 min 0 min 25 W/m² 25,7 km/h (4 Bft) 97,78 %
02.01.2026 10:56 1,3 °C 1,1 °C -2,8 °C 91 % 1000,2 hPa 0,0 l/m² 0 min 0 min 26 W/m² 9,7 km/h (2 Bft) 94,44 %
02.01.2026 10:58 1,3 °C 1,1 °C -2,8 °C 91 % 1000,1 hPa 0,0 l/m² 0 min 0 min 30 W/m² 16,1 km/h (3 Bft) 94,87 %
02.01.2026 11:00 1,3 °C 1,1 °C -2,8 °C 90 % 1000,0 hPa 0,0 l/m² 0 min 0 min 28 W/m² 12,9 km/h (3 Bft) 96,49 %
02.01.2026 11:02 1,4 °C 1,1 °C -2,8 °C 90 % 1000,1 hPa 0,0 l/m² 0 min 0 min 27 W/m² 6,4 km/h (2 Bft) 97,44 %
02.01.2026 11:04 1,4 °C 1,1 °C -2,8 °C 91 % 1000,1 hPa 0,2 l/m² 0 min 0 min 26 W/m² 9,7 km/h (2 Bft) 96,30 %
02.01.2026 11:08 1,4 °C 1,7 °C -2,8 °C 90 % 1000,1 hPa 0,0 l/m² 0 min 0 min 41 W/m² 12,9 km/h (3 Bft) 92,05 %
02.01.2026 11:10 1,4 °C 1,7 °C -2,8 °C 90 % 1000,1 hPa 0,0 l/m² 0 min 0 min 36 W/m² 9,7 km/h (2 Bft) 93,62 %
02.01.2026 11:12 1,4 °C 1,7 °C -2,8 °C 90 % 1000,1 hPa 0,0 l/m² 0 min 0 min 36 W/m² 12,9 km/h (3 Bft) 93,33 %
02.01.2026 11:14 1,4 °C 1,7 °C -2,8 °C 90 % 999,9 hPa 0,0 l/m² 0 min 0 min 40 W/m² 16,1 km/h (3 Bft) 91,84 %
02.01.2026 11:16 1,4 °C 1,7 °C -2,8 °C 90 % 999,8 hPa 0,2 l/m² 0 min 0 min 46 W/m² 12,9 km/h (3 Bft) 93,02 %
02.01.2026 11:18 1,4 °C 1,7 °C -2,8 °C 90 % 999,9 hPa 0,0 l/m² 0 min 0 min 60 W/m² 16,1 km/h (3 Bft) 92,00 %
02.01.2026 11:20 1,4 °C 1,7 °C -2,8 °C 90 % 999,9 hPa 0,0 l/m² 0 min 0 min 110 W/m² 16,1 km/h (3 Bft) 93,33 %
02.01.2026 11:22 1,5 °C 2,2 °C -2,8 °C 90 % 999,9 hPa 0,0 l/m² 2 min 0 min 166 W/m² 16,1 km/h (3 Bft) 91,84 %
02.01.2026 11:24 1,6 °C 1,7 °C -2,8 °C 90 % 999,9 hPa 0,0 l/m² 2 min 0 min 169 W/m² 29,0 km/h (5 Bft) 93,33 %
02.01.2026 11:26 1,6 °C 1,7 °C -2,8 °C 89 % 999,9 hPa 0,0 l/m² 2 min 0 min 153 W/m² 16,1 km/h (3 Bft) 95,92 %
02.01.2026 11:28 1,6 °C 1,7 °C -2,8 °C 89 % 999,9 hPa 0,2 l/m² 2 min 0 min 185 W/m² 19,3 km/h (3 Bft) 93,02 %
02.01.2026 11:30 1,7 °C 1,7 °C -2,8 °C 89 % 999,9 hPa 0,0 l/m² 0 min 0 min 51 W/m² 12,9 km/h (3 Bft) 94,74 %
02.01.2026 11:32 1,7 °C 1,7 °C -2,8 °C 89 % 999,8 hPa 0,0 l/m² 0 min 0 min 57 W/m² 22,5 km/h (4 Bft) 97,50 %
02.01.2026 11:34 1,6 °C 1,7 °C -2,8 °C 89 % 999,7 hPa 0,2 l/m² 0 min 0 min 33 W/m² 16,1 km/h (3 Bft) 92,45 %
02.01.2026 11:36 1,6 °C 1,7 °C -2,8 °C 88 % 999,8 hPa 0,0 l/m² 0 min 0 min 116 W/m² 16,1 km/h (3 Bft) 95,12 %
02.01.2026 11:38 1,7 °C 1,7 °C -2,8 °C 88 % 999,8 hPa 0,0 l/m² 2 min 0 min 240 W/m² 19,3 km/h (3 Bft) 95,74 %
02.01.2026 11:40 1,7 °C 1,7 °C -2,8 °C 88 % 999,7 hPa 0,0 l/m² 2 min 0 min 232 W/m² 16,1 km/h (3 Bft) 97,78 %
02.01.2026 11:42 1,8 °C 1,7 °C -2,8 °C 88 % 999,8 hPa 0,0 l/m² 2 min 0 min 171 W/m² 12,9 km/h (3 Bft) 95,83 %
02.01.2026 11:44 1,8 °C 2,2 °C -2,8 °C 88 % 999,8 hPa 0,0 l/m² 0 min 0 min 110 W/m² 12,9 km/h (3 Bft) 95,56 %
02.01.2026 11:46 1,9 °C 2,2 °C -2,8 °C 88 % 999,8 hPa 0,0 l/m² 2 min 0 min 186 W/m² 16,1 km/h (3 Bft) 97,96 %
02.01.2026 11:48 1,9 °C 2,2 °C -2,8 °C 88 % 999,9 hPa 0,2 l/m² 2 min 0 min 162 W/m² 12,9 km/h (3 Bft) 91,49 %
02.01.2026 11:50 2,0 °C 2,2 °C -2,8 °C 88 % 999,8 hPa 0,0 l/m² 0 min 0 min 130 W/m² 19,3 km/h (3 Bft) 97,87 %
02.01.2026 11:52 2,0 °C 2,2 °C -2,8 °C 87 % 999,8 hPa 0,0 l/m² 0 min 0 min 99 W/m² 16,1 km/h (3 Bft) 97,83 %
02.01.2026 11:54 2,0 °C 2,2 °C -2,8 °C 87 % 999,8 hPa 0,0 l/m² 0 min 0 min 114 W/m² 22,5 km/h (4 Bft) 100,00 %
02.01.2026 11:56 2,0 °C 2,2 °C -2,8 °C 87 % 999,6 hPa 0,2 l/m² 0 min 0 min 123 W/m² 29,0 km/h (5 Bft) 100,00 %
02.01.2026 11:58 2,1 °C 2,8 °C -2,8 °C 87 % 999,7 hPa 0,0 l/m² 0 min 0 min 143 W/m² 16,1 km/h (3 Bft) 100,00 %
02.01.2026 12:00 2,1 °C 2,8 °C -2,8 °C 87 % 999,7 hPa 0,0 l/m² 2 min 0 min 209 W/m² 19,3 km/h (3 Bft) 100,00 %
02.01.2026 12:02 2,2 °C 3,3 °C -2,2 °C 87 % 999,8 hPa 0,0 l/m² 2 min 0 min 276 W/m² 16,1 km/h (3 Bft) 100,00 %
02.01.2026 12:04 2,2 °C 2,8 °C -2,8 °C 87 % 999,8 hPa 0,0 l/m² 2 min 0 min 161 W/m² 16,1 km/h (3 Bft) 100,00 %
02.01.2026 12:08 2,1 °C 2,2 °C -2,8 °C 86 % 999,8 hPa 0,2 l/m² 0 min 0 min 104 W/m² 29,0 km/h (5 Bft) 98,97 %
02.01.2026 12:12 1,9 °C 1,7 °C -2,8 °C 87 % 999,8 hPa 0,0 l/m² 0 min 0 min 76 W/m² 12,9 km/h (3 Bft) 100,00 %
02.01.2026 12:16 1,8 °C 1,1 °C -2,8 °C 87 % 999,8 hPa 0,2 l/m² 0 min 0 min 62 W/m² 19,3 km/h (3 Bft) 100,00 %
02.01.2026 12:18 1,7 °C 1,1 °C -2,8 °C 88 % 999,7 hPa 0,0 l/m² 0 min 0 min 65 W/m² 12,9 km/h (3 Bft) 95,35 %
02.01.2026 12:20 1,6 °C 1,1 °C -2,8 °C 88 % 999,7 hPa 0,0 l/m² 0 min 0 min 73 W/m² 16,1 km/h (3 Bft) 100,00 %
02.01.2026 12:22 1,6 °C 1,7 °C -2,8 °C 88 % 999,7 hPa 0,0 l/m² 0 min 0 min 123 W/m² 12,9 km/h (3 Bft) 100,00 %
02.01.2026 12:24 1,6 °C 1,7 °C -2,8 °C 89 % 999,7 hPa 0,0 l/m² 0 min 0 min 115 W/m² 19,3 km/h (3 Bft) 98,31 %
02.01.2026 12:26 1,6 °C 1,7 °C -2,8 °C 89 % 999,7 hPa 0,0 l/m² 0 min 0 min 131 W/m² 6,4 km/h (2 Bft) 100,00 %
02.01.2026 12:28 1,6 °C 1,7 °C -2,8 °C 89 % 999,7 hPa 0,0 l/m² 0 min 0 min 107 W/m² 19,3 km/h (3 Bft) 98,08 %
02.01.2026 12:30 1,6 °C 1,7 °C -2,8 °C 89 % 999,8 hPa 0,0 l/m² 0 min 0 min 79 W/m² 16,1 km/h (3 Bft) 97,62 %
02.01.2026 12:32 1,6 °C 1,7 °C -2,8 °C 89 % 999,6 hPa 0,2 l/m² 0 min 0 min 56 W/m² 16,1 km/h (3 Bft) 100,00 %
02.01.2026 12:34 1,6 °C 1,7 °C -2,8 °C 89 % 999,5 hPa 0,0 l/m² 0 min 0 min 58 W/m² 12,9 km/h (3 Bft) 97,62 %
02.01.2026 12:36 1,6 °C 2,2 °C -2,8 °C 89 % 999,6 hPa 0,0 l/m² 2 min 0 min 203 W/m² 19,3 km/h (3 Bft) 100,00 %
02.01.2026 12:38 1,6 °C 3,3 °C -2,8 °C 89 % 999,5 hPa 0,0 l/m² 2 min 0 min 240 W/m² 16,1 km/h (3 Bft) 95,56 %
02.01.2026 12:40 1,7 °C 3,9 °C -2,8 °C 89 % 999,4 hPa 0,0 l/m² 0 min 0 min 146 W/m² 9,7 km/h (2 Bft) 100,00 %
02.01.2026 12:42 1,7 °C 4,4 °C -2,8 °C 89 % 999,4 hPa 0,0 l/m² 2 min 0 min 212 W/m² 6,4 km/h (2 Bft) 100,00 %
02.01.2026 12:44 1,8 °C 5,6 °C -2,8 °C 89 % 999,4 hPa 0,0 l/m² 2 min 0 min 278 W/m² 9,7 km/h (2 Bft) 100,00 %
02.01.2026 12:50 2,1 °C 5,0 °C -2,8 °C 88 % 999,4 hPa 0,2 l/m² 5 min 0 min 254 W/m² 22,5 km/h (4 Bft) 98,85 %
02.01.2026 12:51 2,1 °C 5,6 °C -2,8 °C 88 % 999,4 hPa 0,0 l/m² 1 min 0 min 332 W/m² 6,4 km/h (2 Bft) 100,00 %
02.01.2026 12:52 2,2 °C 5,0 °C -2,2 °C 88 % 999,4 hPa 0,0 l/m² 1 min 0 min 319 W/m² 6,4 km/h (2 Bft) 100,00 %
02.01.2026 12:56 2,4 °C 5,6 °C -2,2 °C 88 % 999,3 hPa 0,0 l/m² 4 min 0 min 339 W/m² 9,7 km/h (2 Bft) 100,00 %
02.01.2026 12:58 2,5 °C 4,4 °C -2,2 °C 87 % 999,3 hPa 0,2 l/m² 2 min 0 min 189 W/m² 12,9 km/h (3 Bft) 100,00 %
02.01.2026 13:00 2,6 °C 3,9 °C -2,2 °C 87 % 999,3 hPa 0,0 l/m² 2 min 0 min 222 W/m² 16,1 km/h (3 Bft) 97,78 %
02.01.2026 13:02 2,6 °C 4,4 °C -2,2 °C 86 % 999,3 hPa 0,0 l/m² 2 min 0 min 242 W/m² 22,5 km/h (4 Bft) 100,00 %
02.01.2026 13:04 2,6 °C 5,0 °C -2,2 °C 86 % 999,3 hPa 0,0 l/m² 2 min 0 min 282 W/m² 22,5 km/h (4 Bft) 100,00 %
02.01.2026 13:08 2,7 °C 3,9 °C -2,2 °C 85 % 999,3 hPa 0,2 l/m² 0 min 0 min 149 W/m² 19,3 km/h (3 Bft) 100,00 %
02.01.2026 13:10 2,7 °C 2,8 °C -2,2 °C 85 % 999,3 hPa 0,0 l/m² 0 min 0 min 49 W/m² 19,3 km/h (3 Bft) 100,00 %
02.01.2026 13:12 2,6 °C 2,2 °C -2,8 °C 84 % 999,3 hPa 0,0 l/m² 0 min 0 min 37 W/m² 16,1 km/h (3 Bft) 97,44 %
02.01.2026 13:14 2,6 °C 2,2 °C -2,8 °C 84 % 999,3 hPa 0,0 l/m² 0 min 0 min 30 W/m² 35,4 km/h (5 Bft) 96,43 %
02.01.2026 13:16 2,5 °C 2,2 °C -2,8 °C 84 % 999,2 hPa 0,0 l/m² 0 min 0 min 34 W/m² 16,1 km/h (3 Bft) 97,30 %
02.01.2026 13:18 2,4 °C 2,2 °C -2,8 °C 84 % 999,3 hPa 0,0 l/m² 0 min 0 min 46 W/m² 25,7 km/h (4 Bft) 98,21 %
02.01.2026 13:20 2,4 °C 2,2 °C -2,8 °C 84 % 999,2 hPa 0,0 l/m² 0 min 0 min 62 W/m² 6,4 km/h (2 Bft) 97,37 %
02.01.2026 13:22 2,4 °C 2,2 °C -2,8 °C 84 % 999,2 hPa 0,0 l/m² 0 min 0 min 89 W/m² 22,5 km/h (4 Bft) 98,21 %
02.01.2026 13:24 2,4 °C 2,8 °C -2,8 °C 84 % 999,2 hPa 0,2 l/m² 0 min 0 min 97 W/m² 22,5 km/h (4 Bft) 97,37 %
02.01.2026 13:26 2,4 °C 2,8 °C -2,8 °C 84 % 999,1 hPa 0,0 l/m² 0 min 0 min 110 W/m² 22,5 km/h (4 Bft) 98,11 %
02.01.2026 13:28 2,4 °C 3,3 °C -2,8 °C 84 % 999,2 hPa 0,0 l/m² 0 min 0 min 135 W/m² 16,1 km/h (3 Bft) 97,92 %
02.01.2026 13:30 2,4 °C 3,3 °C -2,8 °C 84 % 999,1 hPa 0,0 l/m² 0 min 0 min 100 W/m² 12,9 km/h (3 Bft) 98,04 %
02.01.2026 13:32 2,5 °C 3,3 °C -2,8 °C 84 % 999,1 hPa 0,0 l/m² 0 min 0 min 123 W/m² 19,3 km/h (3 Bft) 93,62 %
02.01.2026 13:34 2,6 °C 3,3 °C -2,8 °C 83 % 999,0 hPa 0,0 l/m² 0 min 0 min 114 W/m² 29,0 km/h (5 Bft) 95,74 %
02.01.2026 13:36 2,6 °C 3,9 °C -2,2 °C 83 % 999,1 hPa 0,0 l/m² 0 min 0 min 131 W/m² 19,3 km/h (3 Bft) 93,48 %
02.01.2026 13:38 2,7 °C 3,9 °C -2,2 °C 82 % 999,0 hPa 0,0 l/m² 0 min 0 min 114 W/m² 22,5 km/h (4 Bft) 91,49 %
02.01.2026 13:40 2,8 °C 3,9 °C -2,2 °C 82 % 999,0 hPa 0,0 l/m² 0 min 0 min 113 W/m² 19,3 km/h (3 Bft) 93,62 %
02.01.2026 13:42 2,8 °C 3,9 °C -2,2 °C 82 % 999,0 hPa 0,0 l/m² 2 min 0 min 193 W/m² 29,0 km/h (5 Bft) 93,48 %
02.01.2026 13:44 2,9 °C 4,4 °C -2,2 °C 83 % 999,1 hPa 0,0 l/m² 0 min 0 min 137 W/m² 22,5 km/h (4 Bft) 91,49 %
02.01.2026 13:46 3,0 °C 4,4 °C -2,2 °C 82 % 999,0 hPa 0,2 l/m² 2 min 0 min 186 W/m² 25,7 km/h (4 Bft) 93,62 %
02.01.2026 13:48 3,0 °C 3,9 °C -1,7 °C 82 % 999,0 hPa 0,0 l/m² 2 min 0 min 180 W/m² 19,3 km/h (3 Bft) 93,48 %
02.01.2026 13:50 3,0 °C 3,3 °C -1,7 °C 81 % 999,0 hPa 0,0 l/m² 0 min 0 min 137 W/m² 22,5 km/h (4 Bft) 95,74 %
02.01.2026 13:52 3,0 °C 3,3 °C -1,7 °C 81 % 999,1 hPa 0,0 l/m² 0 min 0 min 84 W/m² 16,1 km/h (3 Bft) 95,65 %
02.01.2026 13:54 3,0 °C 2,8 °C -1,7 °C 81 % 999,0 hPa 0,0 l/m² 0 min 0 min 59 W/m² 19,3 km/h (3 Bft) 93,48 %
02.01.2026 13:56 2,9 °C 2,8 °C -1,7 °C 81 % 999,1 hPa 0,0 l/m² 0 min 0 min 55 W/m² 25,7 km/h (4 Bft) 93,75 %
02.01.2026 13:58 2,9 °C 2,8 °C -1,7 °C 81 % 999,1 hPa 0,0 l/m² 0 min 0 min 56 W/m² 25,7 km/h (4 Bft) 91,67 %
02.01.2026 14:00 2,9 °C 2,8 °C -1,7 °C 81 % 999,1 hPa 0,0 l/m² 0 min 0 min 62 W/m² 29,0 km/h (5 Bft) 93,62 %
02.01.2026 14:02 2,9 °C 2,8 °C -1,7 °C 81 % 999,2 hPa 0,0 l/m² 0 min 0 min 67 W/m² 19,3 km/h (3 Bft) 48,78 %
02.01.2026 14:04 2,8 °C 2,2 °C -1,7 °C 81 % 999,3 hPa 0,0 l/m² 0 min 0 min 70 W/m² 29,0 km/h (5 Bft) 97,22 %
02.01.2026 14:08 2,7 °C 2,2 °C -1,7 °C 82 % 999,4 hPa 0,0 l/m² 0 min 0 min 67 W/m² 29,0 km/h (5 Bft) 93,62 %
02.01.2026 14:10 2,7 °C 2,2 °C -2,2 °C 82 % 999,3 hPa 0,2 l/m² 0 min 0 min 65 W/m² 29,0 km/h (5 Bft) 96,23 %
02.01.2026 14:12 2,6 °C 2,2 °C -2,2 °C 83 % 999,3 hPa 0,0 l/m² 0 min 0 min 53 W/m² 29,0 km/h (5 Bft) 95,83 %
02.01.2026 14:14 2,4 °C 1,7 °C -2,2 °C 83 % 999,5 hPa 0,0 l/m² 0 min 0 min 42 W/m² 25,7 km/h (4 Bft) 93,75 %
02.01.2026 14:16 2,4 °C 1,7 °C -2,2 °C 84 % 999,5 hPa 0,0 l/m² 0 min 0 min 33 W/m² 25,7 km/h (4 Bft) 95,83 %
02.01.2026 14:18 2,2 °C 1,1 °C -2,8 °C 85 % 999,5 hPa 0,0 l/m² 0 min 2 min 33 W/m² 29,0 km/h (5 Bft) 95,83 %
02.01.2026 14:22 1,9 °C 1,1 °C -2,8 °C 87 % 999,5 hPa 0,0 l/m² 0 min 4 min 65 W/m² 25,7 km/h (4 Bft) 95,74 %
02.01.2026 14:26 1,7 °C 1,1 °C -2,8 °C 88 % 999,5 hPa 0,0 l/m² 0 min 4 min 82 W/m² 19,3 km/h (3 Bft) 95,74 %
02.01.2026 14:28 1,6 °C 1,1 °C -2,8 °C 89 % 999,4 hPa 0,0 l/m² 0 min 0 min 84 W/m² 12,9 km/h (3 Bft) 97,22 %
02.01.2026 14:30 1,6 °C 1,1 °C -2,8 °C 89 % 999,4 hPa 0,0 l/m² 0 min 0 min 86 W/m² 22,5 km/h (4 Bft) 100,00 %
02.01.2026 14:32 1,6 °C 1,7 °C -2,8 °C 90 % 999,3 hPa 0,2 l/m² 0 min 0 min 108 W/m² 25,7 km/h (4 Bft) 96,49 %
02.01.2026 14:34 1,6 °C 2,2 °C -2,8 °C 90 % 999,2 hPa 0,0 l/m² 2 min 0 min 148 W/m² 19,3 km/h (3 Bft) 100,00 %
02.01.2026 14:36 1,6 °C 2,8 °C -2,8 °C 90 % 999,2 hPa 0,0 l/m² 2 min 0 min 155 W/m² 19,3 km/h (3 Bft) 100,00 %
02.01.2026 14:38 1,6 °C 2,8 °C -2,8 °C 91 % 999,2 hPa 0,0 l/m² 2 min 0 min 170 W/m² 16,1 km/h (3 Bft) 100,00 %
02.01.2026 14:40 1,7 °C 3,3 °C -2,8 °C 91 % 999,2 hPa 0,0 l/m² 2 min 0 min 190 W/m² 22,5 km/h (4 Bft) 97,22 %
02.01.2026 14:42 1,7 °C 2,8 °C -2,2 °C 91 % 999,2 hPa 0,0 l/m² 2 min 0 min 129 W/m² 25,7 km/h (4 Bft) 97,87 %
02.01.2026 14:44 1,7 °C 2,8 °C -2,2 °C 91 % 999,2 hPa 0,0 l/m² 2 min 0 min 129 W/m² 16,1 km/h (3 Bft) 98,15 %
02.01.2026 14:46 1,7 °C 2,8 °C -2,2 °C 91 % 999,2 hPa 0,0 l/m² 2 min 0 min 122 W/m² 9,7 km/h (2 Bft) 98,04 %
02.01.2026 14:48 1,7 °C 2,2 °C -2,2 °C 91 % 999,2 hPa 0,0 l/m² 0 min 0 min 93 W/m² 12,9 km/h (3 Bft) 100,00 %
02.01.2026 14:50 1,8 °C 2,2 °C -2,2 °C 91 % 999,2 hPa 0,0 l/m² 2 min 0 min 142 W/m² 6,4 km/h (2 Bft) 98,25 %
02.01.2026 14:52 1,8 °C 2,2 °C -2,2 °C 91 % 999,3 hPa 0,0 l/m² 2 min 0 min 210 W/m² 12,9 km/h (3 Bft) 97,30 %
02.01.2026 14:54 1,9 °C 2,8 °C -2,2 °C 91 % 999,3 hPa 0,0 l/m² 2 min 0 min 191 W/m² 9,7 km/h (2 Bft) 100,00 %
02.01.2026 14:56 1,9 °C 2,8 °C -2,2 °C 91 % 999,4 hPa 0,0 l/m² 2 min 0 min 249 W/m² 22,5 km/h (4 Bft) 100,00 %
02.01.2026 14:58 2,0 °C 2,8 °C -2,2 °C 91 % 999,4 hPa 0,0 l/m² 2 min 0 min 203 W/m² 19,3 km/h (3 Bft) 100,00 %
02.01.2026 15:00 2,1 °C 2,2 °C -2,2 °C 91 % 999,3 hPa 0,0 l/m² 2 min 0 min 128 W/m² 19,3 km/h (3 Bft) 97,83 %
02.01.2026 15:02 2,1 °C 2,2 °C -2,2 °C 90 % 999,3 hPa 0,2 l/m² 0 min 0 min 61 W/m² 16,1 km/h (3 Bft) 100,00 %
02.01.2026 15:04 2,1 °C 1,7 °C -2,2 °C 90 % 999,3 hPa 0,0 l/m² 0 min 0 min 45 W/m² 12,9 km/h (3 Bft) 98,04 %
02.01.2026 15:08 2,0 °C 1,7 °C -2,2 °C 89 % 999,3 hPa 0,0 l/m² 0 min 0 min 78 W/m² 29,0 km/h (5 Bft) 98,81 %
02.01.2026 15:10 2,0 °C 2,2 °C -2,2 °C 89 % 999,2 hPa 0,0 l/m² 2 min 0 min 124 W/m² 22,5 km/h (4 Bft) 100,00 %
02.01.2026 15:12 2,0 °C 2,2 °C -2,2 °C 89 % 999,3 hPa 0,0 l/m² 2 min 0 min 92 W/m² 16,1 km/h (3 Bft) 100,00 %
02.01.2026 15:14 2,0 °C 2,2 °C -2,2 °C 88 % 999,3 hPa 0,0 l/m² 0 min 0 min 55 W/m² 25,7 km/h (4 Bft) 100,00 %
02.01.2026 15:16 2,0 °C 1,7 °C -2,2 °C 88 % 999,4 hPa 0,0 l/m² 0 min 0 min 40 W/m² 19,3 km/h (3 Bft) 98,28 %
02.01.2026 15:18 2,0 °C 1,7 °C -2,2 °C 88 % 999,4 hPa 0,0 l/m² 0 min 0 min 48 W/m² 19,3 km/h (3 Bft) 100,00 %
02.01.2026 15:20 2,0 °C 1,7 °C -2,2 °C 88 % 999,4 hPa 0,0 l/m² 0 min 0 min 73 W/m² 29,0 km/h (5 Bft) 93,62 %
02.01.2026 15:22 2,0 °C 1,7 °C -2,2 °C 88 % 999,4 hPa 0,0 l/m² 2 min 0 min 101 W/m² 19,3 km/h (3 Bft) 97,83 %
02.01.2026 15:24 2,0 °C 2,2 °C -2,2 °C 88 % 999,4 hPa 0,0 l/m² 2 min 0 min 90 W/m² 16,1 km/h (3 Bft) 97,87 %
02.01.2026 15:26 2,0 °C 1,7 °C -2,2 °C 87 % 999,5 hPa 0,0 l/m² 0 min 0 min 52 W/m² 19,3 km/h (3 Bft) 95,74 %
02.01.2026 15:28 1,9 °C 1,7 °C -2,2 °C 87 % 999,6 hPa 0,0 l/m² 0 min 0 min 28 W/m² 19,3 km/h (3 Bft) 95,74 %
02.01.2026 15:30 1,9 °C 1,7 °C -2,2 °C 87 % 999,4 hPa 0,0 l/m² 0 min 0 min 16 W/m² 25,7 km/h (4 Bft) 97,87 %
02.01.2026 15:32 1,9 °C 1,7 °C -2,2 °C 87 % 999,5 hPa 0,2 l/m² 0 min 0 min 12 W/m² 22,5 km/h (4 Bft) 98,11 %
02.01.2026 15:34 1,9 °C 1,7 °C -2,2 °C 87 % 999,5 hPa 0,0 l/m² 0 min 0 min 12 W/m² 12,9 km/h (3 Bft) 93,88 %
02.01.2026 15:36 1,9 °C 1,1 °C -2,2 °C 87 % 999,5 hPa 0,0 l/m² 0 min 0 min 14 W/m² 25,7 km/h (4 Bft) 97,92 %
02.01.2026 15:38 1,9 °C 1,1 °C -2,2 °C 87 % 999,6 hPa 0,0 l/m² 0 min 0 min 16 W/m² 19,3 km/h (3 Bft) 95,56 %
02.01.2026 15:40 1,9 °C 1,1 °C -2,8 °C 87 % 999,7 hPa 0,0 l/m² 0 min 0 min 20 W/m² 16,1 km/h (3 Bft) 95,83 %
02.01.2026 15:42 1,8 °C 1,1 °C -2,8 °C 88 % 999,7 hPa 0,0 l/m² 0 min 0 min 27 W/m² 22,5 km/h (4 Bft) 97,37 %
02.01.2026 15:44 1,7 °C 1,1 °C -2,8 °C 88 % 999,7 hPa 0,0 l/m² 0 min 2 min 29 W/m² 19,3 km/h (3 Bft) 97,87 %
02.01.2026 15:46 1,6 °C 0,6 °C -3,3 °C 89 % 999,8 hPa 0,0 l/m² 0 min 0 min 37 W/m² 25,7 km/h (4 Bft) 96,49 %
02.01.2026 15:48 1,6 °C 0,6 °C -2,8 °C 89 % 999,7 hPa 0,0 l/m² 0 min 2 min 48 W/m² 19,3 km/h (3 Bft) 97,22 %
02.01.2026 15:50 1,6 °C 0,6 °C -2,8 °C 90 % 999,8 hPa 0,0 l/m² 0 min 2 min 43 W/m² 16,1 km/h (3 Bft) 96,36 %
02.01.2026 15:52 1,5 °C 0,6 °C -2,8 °C 90 % 999,9 hPa 0,0 l/m² 0 min 0 min 29 W/m² 9,7 km/h (2 Bft) 100,00 %
02.01.2026 15:54 1,4 °C 0,6 °C -2,8 °C 90 % 999,9 hPa 0,0 l/m² 0 min 0 min 21 W/m² 9,7 km/h (2 Bft) 100,00 %
02.01.2026 15:56 1,4 °C 0,6 °C -2,8 °C 91 % 999,9 hPa 0,0 l/m² 0 min 0 min 15 W/m² 16,1 km/h (3 Bft) 100,00 %
02.01.2026 15:58 1,4 °C 0,6 °C -2,8 °C 91 % 999,9 hPa 0,0 l/m² 0 min 0 min 11 W/m² 16,1 km/h (3 Bft) 100,00 %
02.01.2026 16:00 1,4 °C 0,6 °C -2,8 °C 91 % 999,9 hPa 0,0 l/m² 0 min 0 min 7 W/m² 22,5 km/h (4 Bft) 96,49 %
02.01.2026 16:02 1,3 °C 0,6 °C -2,8 °C 91 % 1000,0 hPa 0,0 l/m² 0 min 0 min 5 W/m² 12,9 km/h (3 Bft) 100,00 %
02.01.2026 16:04 1,3 °C 0,6 °C -2,8 °C 91 % 1000,0 hPa 0,0 l/m² 0 min 0 min 0 W/m² 19,3 km/h (3 Bft) 100,00 %
02.01.2026 16:08 1,2 °C 0,6 °C -2,8 °C 92 % 1000,0 hPa 0,0 l/m² 0 min 0 min 0 W/m² 12,9 km/h (3 Bft) 100,00 %
02.01.2026 16:10 1,2 °C 0,6 °C -2,8 °C 92 % 1000,1 hPa 0,0 l/m² 0 min 0 min 0 W/m² 19,3 km/h (3 Bft) 97,22 %
02.01.2026 16:12 1,2 °C 0,6 °C -3,3 °C 92 % 1000,0 hPa 0,0 l/m² 0 min 0 min 0 W/m² 6,4 km/h (2 Bft) 98,15 %
02.01.2026 16:14 1,1 °C 0,6 °C -3,3 °C 92 % 1000,0 hPa 0,0 l/m² 0 min 0 min 0 W/m² 16,1 km/h (3 Bft) 100,00 %
02.01.2026 16:16 1,1 °C 0,6 °C -3,3 °C 92 % 1000,1 hPa 0,0 l/m² 0 min 0 min 0 W/m² 19,3 km/h (3 Bft) 97,87 %
02.01.2026 16:18 1,1 °C 0,0 °C -3,3 °C 93 % 1000,1 hPa 0,0 l/m² 0 min 0 min 0 W/m² 12,9 km/h (3 Bft) 100,00 %
02.01.2026 16:20 1,0 °C 0,0 °C -3,3 °C 93 % 1000,1 hPa 0,0 l/m² 0 min 2 min 0 W/m² 22,5 km/h (4 Bft) 97,06 %
02.01.2026 16:22 0,9 °C 0,0 °C -3,3 °C 93 % 1000,1 hPa 0,0 l/m² 0 min 2 min 0 W/m² 16,1 km/h (3 Bft) 94,44 %
02.01.2026 16:24 0,9 °C 0,0 °C -3,9 °C 93 % 1000,2 hPa 0,0 l/m² 0 min 2 min 0 W/m² 12,9 km/h (3 Bft) 98,18 %
02.01.2026 16:26 0,8 °C 0,0 °C -3,9 °C 93 % 1000,2 hPa 0,0 l/m² 0 min 0 min 0 W/m² 12,9 km/h (3 Bft) 97,44 %
02.01.2026 16:28 0,8 °C 0,0 °C -3,9 °C 93 % 1000,3 hPa 0,0 l/m² 0 min 0 min 0 W/m² 9,7 km/h (2 Bft) 97,87 %
02.01.2026 16:32 0,7 °C 0,0 °C -3,9 °C 93 % 1000,4 hPa 0,0 l/m² 0 min 0 min 0 W/m² 9,7 km/h (2 Bft) 97,85 %
02.01.2026 16:34 0,7 °C 0,0 °C -3,9 °C 93 % 1000,5 hPa 0,0 l/m² 0 min 0 min 0 W/m² 16,1 km/h (3 Bft) 97,87 %
02.01.2026 16:36 0,6 °C 0,0 °C -3,9 °C 94 % 1000,5 hPa 0,0 l/m² 0 min 0 min 0 W/m² 6,4 km/h (2 Bft) 98,15 %
02.01.2026 16:38 0,6 °C 0,0 °C -3,9 °C 94 % 1000,5 hPa 0,0 l/m² 0 min 0 min 0 W/m² 6,4 km/h (2 Bft) 98,00 %
02.01.2026 16:40 0,6 °C 0,0 °C -3,9 °C 94 % 1000,3 hPa 0,0 l/m² 0 min 0 min 0 W/m² 12,9 km/h (3 Bft) 97,30 %
02.01.2026 16:42 0,6 °C 0,0 °C -3,9 °C 94 % 1000,1 hPa 0,0 l/m² 0 min 0 min 0 W/m² 6,4 km/h (2 Bft) 96,36 %
02.01.2026 16:44 0,6 °C 0,0 °C -3,9 °C 94 % 1000,0 hPa 0,0 l/m² 0 min 0 min 0 W/m² 6,4 km/h (2 Bft) 93,75 %
02.01.2026 16:46 0,6 °C 0,0 °C -3,9 °C 94 % 999,9 hPa 0,0 l/m² 0 min 0 min 0 W/m² 12,9 km/h (3 Bft) 97,30 %
02.01.2026 16:48 0,6 °C 0,0 °C -3,9 °C 94 % 1000,0 hPa 0,0 l/m² 0 min 0 min 0 W/m² 12,9 km/h (3 Bft) 95,74 %
02.01.2026 16:52 0,6 °C 0,0 °C -3,9 °C 95 % 1000,1 hPa 0,0 l/m² 0 min 0 min 0 W/m² 12,9 km/h (3 Bft) 94,06 %
02.01.2026 16:54 0,6 °C 0,0 °C -3,9 °C 95 % 1000,2 hPa 0,2 l/m² 0 min 0 min 0 W/m² 12,9 km/h (3 Bft) 90,00 %
02.01.2026 16:56 0,6 °C 0,0 °C -3,9 °C 95 % 1000,2 hPa 0,0 l/m² 0 min 0 min 0 W/m² 16,1 km/h (3 Bft) 95,65 %
02.01.2026 16:58 0,6 °C 0,0 °C -3,9 °C 95 % 1000,2 hPa 0,0 l/m² 0 min 0 min 0 W/m² 16,1 km/h (3 Bft) 95,74 %
02.01.2026 17:00 0,6 °C 0,0 °C -3,9 °C 95 % 1000,1 hPa 0,0 l/m² 0 min 0 min 0 W/m² 12,9 km/h (3 Bft) 94,55 %
02.01.2026 17:04 0,6 °C 0,0 °C -3,9 °C 95 % 1000,2 hPa 0,0 l/m² 0 min 0 min 0 W/m² 12,9 km/h (3 Bft) 97,73 %
02.01.2026 17:06 0,6 °C 0,0 °C -3,9 °C 95 % 1000,3 hPa 0,0 l/m² 0 min 0 min 0 W/m² 9,7 km/h (2 Bft) 96,55 %
02.01.2026 17:07 0,6 °C 0,0 °C -3,9 °C 95 % 1000,3 hPa 0,0 l/m² 0 min 0 min 0 W/m² 6,4 km/h (2 Bft) 96,32 %
02.01.2026 17:12 0,6 °C 0,0 °C -3,3 °C 95 % 1000,5 hPa 0,0 l/m² 0 min 0 min 0 W/m² 12,9 km/h (3 Bft) 93,33 %
02.01.2026 17:16 0,6 °C 0,0 °C -3,3 °C 95 % 1000,6 hPa 0,0 l/m² 0 min 0 min 0 W/m² 12,9 km/h (3 Bft) 94,79 %
02.01.2026 17:18 0,6 °C 0,0 °C -3,3 °C 95 % 1000,6 hPa 0,0 l/m² 0 min 0 min 0 W/m² 12,9 km/h (3 Bft) 96,11 %
02.01.2026 17:19 0,6 °C 0,0 °C -3,3 °C 95 % 1000,6 hPa 0,0 l/m² 0 min 0 min 0 W/m² 6,4 km/h (2 Bft) 96,11 %
02.01.2026 17:20 0,6 °C 0,0 °C -3,3 °C 95 % 1000,6 hPa 0,0 l/m² 0 min 0 min 0 W/m² 19,3 km/h (3 Bft) 98,25 %
02.01.2026 17:24 0,6 °C 0,0 °C -3,3 °C 96 % 1000,6 hPa 0,0 l/m² 0 min 0 min 0 W/m² 16,1 km/h (3 Bft) 95,74 %
02.01.2026 17:26 0,6 °C 0,0 °C -3,3 °C 96 % 1000,5 hPa 0,0 l/m² 0 min 0 min 0 W/m² 12,9 km/h (3 Bft) 93,62 %
02.01.2026 17:28 0,6 °C 0,0 °C -3,3 °C 96 % 1000,6 hPa 0,0 l/m² 0 min 0 min 0 W/m² 9,7 km/h (2 Bft) 94,34 %
02.01.2026 17:32 0,7 °C 0,0 °C -3,3 °C 96 % 1000,5 hPa 0,0 l/m² 0 min 0 min 0 W/m² 19,3 km/h (3 Bft) 93,10 %
02.01.2026 17:34 0,6 °C 0,0 °C -3,3 °C 96 % 1000,5 hPa 0,0 l/m² 0 min 0 min 0 W/m² 12,9 km/h (3 Bft) 95,74 %
02.01.2026 17:38 0,6 °C 0,0 °C -3,3 °C 96 % 1000,5 hPa 0,0 l/m² 0 min 0 min 0 W/m² 6,4 km/h (2 Bft) 100,00 %
02.01.2026 17:42 0,6 °C 0,0 °C -3,3 °C 96 % 1000,5 hPa 0,0 l/m² 0 min 0 min 0 W/m² 16,1 km/h (3 Bft) 98,91 %
02.01.2026 17:43 0,6 °C 0,0 °C -3,3 °C 96 % 1000,4 hPa 0,0 l/m² 0 min 0 min 0 W/m² 9,7 km/h (2 Bft) 97,92 %
02.01.2026 17:44 0,6 °C 0,0 °C -3,3 °C 96 % 1000,5 hPa 0,0 l/m² 0 min 0 min 0 W/m² 6,4 km/h (2 Bft) 98,68 %
02.01.2026 17:45 0,6 °C 0,0 °C -3,3 °C 96 % 1000,5 hPa 0,0 l/m² 0 min 0 min 0 W/m² 19,3 km/h (3 Bft) 100,00 %
02.01.2026 17:50 0,6 °C 0,0 °C -3,3 °C 96 % 1000,6 hPa 0,0 l/m² 0 min 0 min 0 W/m² 16,1 km/h (3 Bft) 98,73 %
02.01.2026 17:57 0,6 °C 0,0 °C -3,3 °C 96 % 1000,6 hPa 0,0 l/m² 0 min 0 min 0 W/m² 12,9 km/h (3 Bft) 98,77 %
02.01.2026 17:58 0,6 °C 0,0 °C -3,3 °C 96 % 1000,5 hPa 0,0 l/m² 0 min 0 min 0 W/m² 3,2 km/h (1 Bft) 98,77 %
02.01.2026 18:00 0,6 °C 0,0 °C -3,3 °C 96 % 1000,6 hPa 0,0 l/m² 0 min 0 min 0 W/m² 12,9 km/h (3 Bft) 100,00 %
02.01.2026 18:04 0,6 °C 0,0 °C -3,3 °C 96 % 1000,6 hPa 0,0 l/m² 0 min 0 min 0 W/m² 12,9 km/h (3 Bft) 97,22 %
02.01.2026 18:07 0,6 °C 0,0 °C -3,3 °C 96 % 1000,6 hPa 0,0 l/m² 0 min 0 min 0 W/m² 16,1 km/h (3 Bft) 97,22 %
02.01.2026 18:08 0,6 °C 0,0 °C -3,3 °C 96 % 1000,6 hPa 0,0 l/m² 0 min 0 min 0 W/m² 16,1 km/h (3 Bft) 99,07 %
02.01.2026 18:10 0,6 °C 0,0 °C -3,3 °C 96 % 1000,6 hPa 0,0 l/m² 0 min 0 min 0 W/m² 12,9 km/h (3 Bft) 98,25 %
02.01.2026 18:14 0,6 °C 0,0 °C -3,3 °C 96 % 1000,7 hPa 0,0 l/m² 0 min 0 min 0 W/m² 6,4 km/h (2 Bft) 100,00 %
02.01.2026 18:16 0,6 °C 0,0 °C -3,3 °C 96 % 1000,7 hPa 0,0 l/m² 0 min 0 min 0 W/m² 12,9 km/h (3 Bft) 97,96 %
02.01.2026 18:18 0,6 °C 0,0 °C -3,3 °C 96 % 1000,8 hPa 0,0 l/m² 0 min 0 min 0 W/m² 12,9 km/h (3 Bft) 100,00 %
02.01.2026 18:20 0,6 °C 0,0 °C -3,3 °C 96 % 1000,8 hPa 0,2 l/m² 0 min 0 min 0 W/m² 12,9 km/h (3 Bft) 97,62 %
02.01.2026 18:22 0,6 °C 0,0 °C -3,3 °C 96 % 1000,9 hPa 0,0 l/m² 0 min 0 min 0 W/m² 12,9 km/h (3 Bft) 98,08 %
02.01.2026 18:24 0,6 °C 0,0 °C -3,3 °C 96 % 1001,0 hPa 0,0 l/m² 0 min 0 min 0 W/m² 12,9 km/h (3 Bft) 100,00 %
02.01.2026 18:26 0,6 °C 0,0 °C -3,3 °C 96 % 1001,0 hPa 0,0 l/m² 0 min 0 min 0 W/m² 6,4 km/h (2 Bft) 97,92 %
02.01.2026 18:28 0,6 °C 0,0 °C -3,3 °C 96 % 1001,0 hPa 0,0 l/m² 0 min 0 min 0 W/m² 12,9 km/h (3 Bft) 100,00 %
02.01.2026 18:30 0,6 °C 0,0 °C -3,3 °C 96 % 1001,0 hPa 0,0 l/m² 0 min 0 min 0 W/m² 12,9 km/h (3 Bft) 96,00 %
02.01.2026 18:32 0,6 °C 0,0 °C -3,3 °C 96 % 1001,0 hPa 0,0 l/m² 0 min 0 min 0 W/m² 19,3 km/h (3 Bft) 100,00 %
02.01.2026 18:34 0,6 °C 0,0 °C -3,3 °C 96 % 1001,0 hPa 0,0 l/m² 0 min 0 min 0 W/m² 16,1 km/h (3 Bft) 97,87 %
02.01.2026 18:36 0,6 °C 0,0 °C -3,3 °C 96 % 1001,2 hPa 0,0 l/m² 0 min 0 min 0 W/m² 16,1 km/h (3 Bft) 97,67 %
02.01.2026 18:38 0,5 °C 0,0 °C -3,3 °C 96 % 1001,2 hPa 0,0 l/m² 0 min 0 min 0 W/m² 6,4 km/h (2 Bft) 98,00 %
02.01.2026 18:40 0,6 °C 0,0 °C -3,3 °C 96 % 1001,2 hPa 0,0 l/m² 0 min 0 min 0 W/m² 19,3 km/h (3 Bft) 100,00 %
02.01.2026 18:42 0,5 °C 0,0 °C -3,3 °C 96 % 1001,3 hPa 0,0 l/m² 0 min 0 min 0 W/m² 9,7 km/h (2 Bft) 100,00 %
02.01.2026 18:44 0,6 °C 0,0 °C -3,3 °C 96 % 1001,4 hPa 0,0 l/m² 0 min 0 min 0 W/m² 19,3 km/h (3 Bft) 100,00 %
02.01.2026 18:46 0,6 °C 0,0 °C -3,3 °C 96 % 1001,3 hPa 0,0 l/m² 0 min 0 min 0 W/m² 12,9 km/h (3 Bft) 98,00 %
02.01.2026 18:48 0,6 °C 0,0 °C -3,3 °C 96 % 1001,3 hPa 0,0 l/m² 0 min 0 min 0 W/m² 19,3 km/h (3 Bft) 95,74 %
02.01.2026 18:50 0,6 °C 0,0 °C -3,3 °C 96 % 1001,4 hPa 0,0 l/m² 0 min 0 min 0 W/m² 9,7 km/h (2 Bft) 95,35 %
02.01.2026 18:54 0,6 °C 0,0 °C -3,3 °C 96 % 1001,5 hPa 0,0 l/m² 0 min 0 min 0 W/m² 16,1 km/h (3 Bft) 96,91 %
02.01.2026 18:56 0,6 °C 0,0 °C -3,3 °C 96 % 1001,5 hPa 0,0 l/m² 0 min 0 min 0 W/m² 19,3 km/h (3 Bft) 97,62 %
02.01.2026 18:58 0,6 °C 0,0 °C -3,3 °C 96 % 1001,5 hPa 0,0 l/m² 0 min 0 min 0 W/m² 12,9 km/h (3 Bft) 95,83 %
02.01.2026 19:00 0,6 °C 0,0 °C -3,3 °C 96 % 1001,6 hPa 0,0 l/m² 0 min 0 min 0 W/m² 12,9 km/h (3 Bft) 91,11 %
02.01.2026 19:02 0,6 °C 0,0 °C -3,3 °C 96 % 1001,6 hPa 0,0 l/m² 0 min 0 min 0 W/m² 6,4 km/h (2 Bft) 92,16 %
02.01.2026 19:04 0,6 °C 0,0 °C -3,3 °C 96 % 1001,6 hPa 0,0 l/m² 0 min 0 min 0 W/m² 9,7 km/h (2 Bft) 96,00 %
02.01.2026 19:08 0,6 °C 0,0 °C -3,3 °C 96 % 1001,6 hPa 0,0 l/m² 0 min 0 min 0 W/m² 19,3 km/h (3 Bft) 94,62 %
02.01.2026 19:10 0,6 °C 0,0 °C -3,3 °C 96 % 1001,6 hPa 0,0 l/m² 0 min 0 min 0 W/m² 16,1 km/h (3 Bft) 95,56 %
02.01.2026 19:12 0,6 °C 0,0 °C -3,3 °C 96 % 1001,7 hPa 0,0 l/m² 0 min 0 min 0 W/m² 12,9 km/h (3 Bft) 95,83 %
02.01.2026 19:14 0,6 °C 0,0 °C -3,3 °C 96 % 1001,7 hPa 0,0 l/m² 0 min 0 min 0 W/m² 16,1 km/h (3 Bft) 94,87 %
02.01.2026 19:16 0,6 °C 0,0 °C -3,3 °C 96 % 1001,7 hPa 0,0 l/m² 0 min 0 min 0 W/m² 16,1 km/h (3 Bft) 97,83 %
02.01.2026 19:18 0,6 °C 0,0 °C -3,3 °C 96 % 1001,7 hPa 0,0 l/m² 0 min 0 min 0 W/m² 12,9 km/h (3 Bft) 93,10 %
02.01.2026 19:20 0,6 °C 0,0 °C -3,3 °C 96 % 1001,7 hPa 0,0 l/m² 0 min 0 min 0 W/m² 16,1 km/h (3 Bft) 88,89 %
02.01.2026 19:22 0,6 °C 0,0 °C -3,3 °C 96 % 1001,7 hPa 0,0 l/m² 0 min 0 min 0 W/m² 12,9 km/h (3 Bft) 96,49 %
02.01.2026 19:24 0,6 °C 0,0 °C -3,3 °C 96 % 1001,8 hPa 0,0 l/m² 0 min 0 min 0 W/m² 12,9 km/h (3 Bft) 95,65 %
02.01.2026 19:26 0,6 °C 0,0 °C -3,3 °C 96 % 1001,7 hPa 0,0 l/m² 0 min 0 min 0 W/m² 6,4 km/h (2 Bft) 97,87 %
02.01.2026 19:28 0,6 °C 0,0 °C -3,3 °C 96 % 1001,7 hPa 0,0 l/m² 0 min 0 min 0 W/m² 6,4 km/h (2 Bft) 97,30 %
02.01.2026 19:30 0,6 °C 0,0 °C -3,3 °C 96 % 1001,8 hPa 0,0 l/m² 0 min 0 min 0 W/m² 6,4 km/h (2 Bft) 100,00 %
02.01.2026 19:32 0,6 °C 0,0 °C -3,3 °C 96 % 1001,8 hPa 0,0 l/m² 0 min 0 min 0 W/m² 6,4 km/h (2 Bft) 100,00 %
02.01.2026 19:34 0,6 °C 0,0 °C -3,3 °C 96 % 1001,8 hPa 0,0 l/m² 0 min 0 min 0 W/m² 12,9 km/h (3 Bft) 98,21 %
02.01.2026 19:36 0,6 °C 0,0 °C -3,3 °C 96 % 1001,8 hPa 0,0 l/m² 0 min 0 min 0 W/m² 16,1 km/h (3 Bft) 97,37 %
02.01.2026 19:38 0,6 °C 0,0 °C -3,3 °C 96 % 1001,9 hPa 0,0 l/m² 0 min 0 min 0 W/m² 9,7 km/h (2 Bft) 100,00 %
02.01.2026 19:40 0,6 °C 0,0 °C -3,3 °C 96 % 1001,8 hPa 0,0 l/m² 0 min 0 min 0 W/m² 12,9 km/h (3 Bft) 97,37 %
02.01.2026 19:42 0,6 °C 0,0 °C -3,3 °C 96 % 1001,8 hPa 0,0 l/m² 0 min 0 min 0 W/m² 9,7 km/h (2 Bft) 100,00 %
02.01.2026 19:44 0,6 °C 0,0 °C -3,3 °C 96 % 1001,7 hPa 0,0 l/m² 0 min 0 min 0 W/m² 16,1 km/h (3 Bft) 100,00 %
02.01.2026 19:46 0,6 °C 0,0 °C -3,3 °C 96 % 1001,8 hPa 0,0 l/m² 0 min 0 min 0 W/m² 12,9 km/h (3 Bft) 98,21 %
02.01.2026 19:48 0,6 °C 0,0 °C -3,3 °C 96 % 1001,8 hPa 0,0 l/m² 0 min 0 min 0 W/m² 12,9 km/h (3 Bft) 100,00 %
02.01.2026 19:50 0,6 °C 0,0 °C -3,3 °C 96 % 1001,7 hPa 0,0 l/m² 0 min 0 min 0 W/m² 12,9 km/h (3 Bft) 100,00 %
02.01.2026 19:52 0,6 °C 0,0 °C -3,3 °C 96 % 1001,8 hPa 0,0 l/m² 0 min 0 min 0 W/m² 19,3 km/h (3 Bft) 100,00 %
02.01.2026 19:54 0,6 °C 0,0 °C -3,3 °C 96 % 1001,9 hPa 0,0 l/m² 0 min 0 min 0 W/m² 12,9 km/h (3 Bft) 97,92 %
02.01.2026 19:56 0,6 °C 0,0 °C -3,3 °C 96 % 1001,8 hPa 0,0 l/m² 0 min 0 min 0 W/m² 12,9 km/h (3 Bft) 100,00 %
02.01.2026 19:58 0,6 °C 0,0 °C -3,3 °C 96 % 1001,9 hPa 0,0 l/m² 0 min 0 min 0 W/m² 9,7 km/h (2 Bft) 97,50 %
02.01.2026 20:00 0,6 °C 0,0 °C -3,3 °C 96 % 1002,0 hPa 0,0 l/m² 0 min 0 min 0 W/m² 22,5 km/h (4 Bft) 97,87 %
02.01.2026 20:02 0,6 °C 0,0 °C -3,3 °C 96 % 1001,9 hPa 0,0 l/m² 0 min 0 min 0 W/m² 16,1 km/h (3 Bft) 95,65 %
02.01.2026 20:04 0,6 °C 0,0 °C -3,3 °C 96 % 1002,0 hPa 0,0 l/m² 0 min 0 min 0 W/m² 12,9 km/h (3 Bft) 97,92 %
02.01.2026 20:08 0,6 °C 0,0 °C -3,3 °C 96 % 1002,1 hPa 0,0 l/m² 0 min 0 min 0 W/m² 16,1 km/h (3 Bft) 94,68 %
02.01.2026 20:10 0,6 °C 0,0 °C -3,3 °C 96 % 1002,0 hPa 0,0 l/m² 0 min 0 min 0 W/m² 12,9 km/h (3 Bft) 97,87 %
02.01.2026 20:12 0,6 °C 0,0 °C -3,3 °C 96 % 1002,1 hPa 0,0 l/m² 0 min 0 min 0 W/m² 12,9 km/h (3 Bft) 97,78 %
02.01.2026 20:14 0,6 °C 0,0 °C -3,3 °C 96 % 1002,1 hPa 0,0 l/m² 0 min 0 min 0 W/m² 19,3 km/h (3 Bft) 97,83 %
02.01.2026 20:16 0,6 °C 0,0 °C -3,3 °C 96 % 1002,1 hPa 0,0 l/m² 0 min 0 min 0 W/m² 12,9 km/h (3 Bft) 96,55 %
02.01.2026 20:18 0,6 °C 0,0 °C -3,3 °C 96 % 1002,1 hPa 0,0 l/m² 0 min 0 min 0 W/m² 19,3 km/h (3 Bft) 97,73 %
02.01.2026 20:20 0,6 °C 0,0 °C -3,3 °C 96 % 1002,1 hPa 0,0 l/m² 0 min 0 min 0 W/m² 16,1 km/h (3 Bft) 97,56 %
02.01.2026 20:22 0,6 °C 0,0 °C -3,3 °C 96 % 1002,1 hPa 0,0 l/m² 0 min 0 min 0 W/m² 12,9 km/h (3 Bft) 97,87 %
02.01.2026 20:24 0,6 °C 0,0 °C -3,3 °C 96 % 1002,1 hPa 0,0 l/m² 0 min 0 min 0 W/m² 19,3 km/h (3 Bft) 97,73 %
02.01.2026 20:26 0,6 °C 0,0 °C -3,3 °C 96 % 1002,1 hPa 0,0 l/m² 0 min 0 min 0 W/m² 16,1 km/h (3 Bft) 98,28 %
02.01.2026 20:28 0,6 °C 0,0 °C -3,3 °C 96 % 1002,0 hPa 0,0 l/m² 0 min 0 min 0 W/m² 16,1 km/h (3 Bft) 92,11 %
02.01.2026 20:30 0,6 °C 0,0 °C -3,3 °C 96 % 1002,0 hPa 0,0 l/m² 0 min 0 min 0 W/m² 16,1 km/h (3 Bft) 97,87 %
02.01.2026 20:32 0,6 °C 0,0 °C -3,3 °C 96 % 1002,1 hPa 0,0 l/m² 0 min 0 min 0 W/m² 9,7 km/h (2 Bft) 95,74 %
02.01.2026 20:34 0,5 °C 0,0 °C -3,3 °C 96 % 1002,1 hPa 0,0 l/m² 0 min 0 min 0 W/m² 16,1 km/h (3 Bft) 97,87 %
02.01.2026 20:36 0,5 °C 0,0 °C -3,3 °C 96 % 1002,1 hPa 0,0 l/m² 0 min 0 min 0 W/m² 12,9 km/h (3 Bft) 97,83 %
02.01.2026 20:38 0,5 °C 0,0 °C -3,3 °C 96 % 1002,1 hPa 0,0 l/m² 0 min 0 min 0 W/m² 16,1 km/h (3 Bft) 93,62 %
02.01.2026 20:40 0,5 °C 0,0 °C -3,3 °C 96 % 1002,1 hPa 0,0 l/m² 0 min 0 min 0 W/m² 12,9 km/h (3 Bft) 97,87 %
02.01.2026 20:42 0,5 °C 0,0 °C -3,3 °C 96 % 1002,3 hPa 0,0 l/m² 0 min 0 min 0 W/m² 12,9 km/h (3 Bft) 97,78 %
02.01.2026 20:44 0,5 °C -0,6 °C -3,3 °C 96 % 1002,3 hPa 0,0 l/m² 0 min 0 min 0 W/m² 6,4 km/h (2 Bft) 96,49 %
02.01.2026 20:46 0,4 °C 0,0 °C -3,3 °C 96 % 1002,3 hPa 0,0 l/m² 0 min 0 min 0 W/m² 12,9 km/h (3 Bft) 94,87 %
02.01.2026 20:48 0,4 °C 0,0 °C -3,3 °C 96 % 1002,2 hPa 0,0 l/m² 0 min 0 min 0 W/m² 12,9 km/h (3 Bft) 95,65 %
02.01.2026 20:50 0,5 °C 0,0 °C -3,3 °C 96 % 1002,2 hPa 0,0 l/m² 0 min 0 min 0 W/m² 22,5 km/h (4 Bft) 95,74 %
02.01.2026 20:52 0,5 °C 0,0 °C -3,3 °C 96 % 1002,2 hPa 0,0 l/m² 0 min 0 min 0 W/m² 16,1 km/h (3 Bft) 95,74 %
02.01.2026 20:54 0,5 °C 0,0 °C -3,3 °C 96 % 1002,1 hPa 0,0 l/m² 0 min 0 min 0 W/m² 12,9 km/h (3 Bft) 96,36 %
02.01.2026 20:56 0,5 °C 0,0 °C -3,3 °C 96 % 1002,2 hPa 0,0 l/m² 0 min 0 min 0 W/m² 16,1 km/h (3 Bft) 94,44 %
02.01.2026 20:58 0,6 °C 0,0 °C -3,3 °C 96 % 1002,3 hPa 0,0 l/m² 0 min 0 min 0 W/m² 12,9 km/h (3 Bft) 96,49 %
02.01.2026 21:00 0,5 °C 0,0 °C -3,3 °C 96 % 1002,3 hPa 0,0 l/m² 0 min 0 min 0 W/m² 16,1 km/h (3 Bft) 94,74 %
02.01.2026 21:02 0,5 °C 0,0 °C -3,3 °C 96 % 1002,4 hPa 0,0 l/m² 0 min 0 min 0 W/m² 16,1 km/h (3 Bft) 97,92 %
02.01.2026 21:04 0,5 °C 0,0 °C -3,3 °C 96 % 1002,4 hPa 0,0 l/m² 0 min 0 min 0 W/m² 16,1 km/h (3 Bft) 95,65 %
02.01.2026 21:06 0,5 °C 0,0 °C -3,3 °C 96 % 1002,5 hPa 0,0 l/m² 0 min 0 min 0 W/m² 12,9 km/h (3 Bft) 94,64 %
02.01.2026 21:08 0,5 °C 0,0 °C -3,3 °C 96 % 1002,5 hPa 0,0 l/m² 0 min 0 min 0 W/m² 16,1 km/h (3 Bft) 97,44 %
02.01.2026 21:10 0,6 °C 0,0 °C -3,3 °C 96 % 1002,5 hPa 0,0 l/m² 0 min 0 min 0 W/m² 12,9 km/h (3 Bft) 93,62 %
02.01.2026 21:12 0,6 °C 0,0 °C -3,3 °C 96 % 1002,6 hPa 0,0 l/m² 0 min 0 min 0 W/m² 12,9 km/h (3 Bft) 95,65 %
02.01.2026 21:14 0,6 °C 0,0 °C -3,3 °C 96 % 1002,6 hPa 0,0 l/m² 0 min 0 min 0 W/m² 9,7 km/h (2 Bft) 95,74 %
02.01.2026 21:16 0,6 °C 0,0 °C -3,3 °C 96 % 1002,6 hPa 0,0 l/m² 0 min 0 min 0 W/m² 16,1 km/h (3 Bft) 97,87 %
02.01.2026 21:18 0,5 °C 0,0 °C -3,3 °C 96 % 1002,5 hPa 0,0 l/m² 0 min 0 min 0 W/m² 12,9 km/h (3 Bft) 97,87 %
02.01.2026 21:20 0,6 °C 0,0 °C -3,3 °C 96 % 1002,6 hPa 0,0 l/m² 0 min 0 min 0 W/m² 12,9 km/h (3 Bft) 95,74 %
02.01.2026 21:22 0,6 °C 0,0 °C -3,3 °C 96 % 1002,6 hPa 0,0 l/m² 0 min 0 min 0 W/m² 19,3 km/h (3 Bft) 95,74 %
02.01.2026 21:24 0,6 °C 0,0 °C -3,3 °C 96 % 1002,5 hPa 0,0 l/m² 0 min 0 min 0 W/m² 12,9 km/h (3 Bft) 96,67 %
02.01.2026 21:26 0,6 °C 0,0 °C -3,3 °C 96 % 1002,4 hPa 0,0 l/m² 0 min 0 min 0 W/m² 16,1 km/h (3 Bft) 97,87 %
02.01.2026 21:28 0,6 °C 0,0 °C -3,3 °C 96 % 1002,3 hPa 0,0 l/m² 0 min 0 min 0 W/m² 12,9 km/h (3 Bft) 97,87 %
02.01.2026 21:30 0,6 °C 0,0 °C -3,3 °C 96 % 1002,3 hPa 0,0 l/m² 0 min 0 min 0 W/m² 16,1 km/h (3 Bft) 97,87 %
02.01.2026 21:32 0,6 °C 0,0 °C -3,3 °C 96 % 1002,4 hPa 0,0 l/m² 0 min 0 min 0 W/m² 16,1 km/h (3 Bft) 95,74 %
02.01.2026 21:34 0,6 °C 0,0 °C -3,3 °C 96 % 1002,4 hPa 0,0 l/m² 0 min 0 min 0 W/m² 16,1 km/h (3 Bft) 97,83 %
02.01.2026 21:36 0,6 °C 0,0 °C -3,3 °C 96 % 1002,3 hPa 0,0 l/m² 0 min 0 min 0 W/m² 16,1 km/h (3 Bft) 97,87 %
02.01.2026 21:38 0,6 °C 0,0 °C -3,3 °C 96 % 1002,4 hPa 0,0 l/m² 0 min 0 min 0 W/m² 16,1 km/h (3 Bft) 97,87 %
02.01.2026 21:40 0,6 °C 0,0 °C -3,3 °C 96 % 1002,5 hPa 0,0 l/m² 0 min 0 min 0 W/m² 19,3 km/h (3 Bft) 97,87 %
02.01.2026 21:42 0,7 °C 0,0 °C -3,3 °C 96 % 1002,5 hPa 0,0 l/m² 0 min 0 min 0 W/m² 19,3 km/h (3 Bft) 97,87 %
02.01.2026 21:44 0,8 °C 0,6 °C -3,3 °C 96 % 1002,5 hPa 0,0 l/m² 0 min 0 min 0 W/m² 25,7 km/h (4 Bft) 97,87 %
02.01.2026 21:46 0,8 °C 0,6 °C -3,3 °C 96 % 1002,5 hPa 0,0 l/m² 0 min 0 min 0 W/m² 22,5 km/h (4 Bft) 97,83 %
02.01.2026 21:48 0,8 °C 0,6 °C -3,3 °C 96 % 1002,6 hPa 0,0 l/m² 0 min 0 min 0 W/m² 9,7 km/h (2 Bft) 98,15 %
02.01.2026 21:50 0,8 °C 0,6 °C -2,8 °C 96 % 1002,6 hPa 0,0 l/m² 0 min 0 min 0 W/m² 19,3 km/h (3 Bft) 97,92 %
02.01.2026 21:52 0,8 °C 0,6 °C -2,8 °C 96 % 1002,7 hPa 0,0 l/m² 0 min 0 min 0 W/m² 12,9 km/h (3 Bft) 100,00 %
02.01.2026 21:54 0,9 °C 0,6 °C -2,8 °C 96 % 1002,8 hPa 0,0 l/m² 0 min 0 min 0 W/m² 19,3 km/h (3 Bft) 100,00 %
02.01.2026 21:56 0,9 °C 0,6 °C -2,8 °C 96 % 1002,8 hPa 0,0 l/m² 0 min 0 min 0 W/m² 12,9 km/h (3 Bft) 100,00 %
02.01.2026 21:58 0,9 °C 0,6 °C -2,8 °C 96 % 1003,0 hPa 0,0 l/m² 0 min 0 min 0 W/m² 16,1 km/h (3 Bft) 100,00 %
02.01.2026 22:00 0,9 °C 0,6 °C -2,8 °C 96 % 1003,0 hPa 0,0 l/m² 0 min 0 min 0 W/m² 19,3 km/h (3 Bft) 98,25 %
02.01.2026 22:02 0,9 °C 0,6 °C -2,8 °C 95 % 1002,9 hPa 0,0 l/m² 0 min 0 min 0 W/m² 16,1 km/h (3 Bft) 97,83 %
02.01.2026 22:04 0,9 °C 0,6 °C -2,8 °C 96 % 1002,9 hPa 0,0 l/m² 0 min 0 min 0 W/m² 22,5 km/h (4 Bft) 100,00 %
02.01.2026 22:08 0,9 °C 0,6 °C -3,3 °C 96 % 1002,9 hPa 0,0 l/m² 0 min 0 min 0 W/m² 12,9 km/h (3 Bft) 100,00 %
02.01.2026 22:10 0,9 °C 0,0 °C -3,3 °C 95 % 1003,0 hPa 0,0 l/m² 0 min 0 min 0 W/m² 12,9 km/h (3 Bft) 100,00 %
02.01.2026 22:12 0,9 °C 0,0 °C -3,3 °C 95 % 1003,0 hPa 0,0 l/m² 0 min 0 min 0 W/m² 6,4 km/h (2 Bft) 100,00 %
02.01.2026 22:14 0,9 °C 0,0 °C -3,3 °C 95 % 1003,0 hPa 0,0 l/m² 0 min 0 min 0 W/m² 6,4 km/h (2 Bft) 95,74 %
02.01.2026 22:16 0,8 °C 0,0 °C -3,3 °C 95 % 1003,0 hPa 0,0 l/m² 0 min 0 min 0 W/m² 16,1 km/h (3 Bft) 97,87 %
02.01.2026 22:18 0,8 °C 0,0 °C -3,3 °C 95 % 1003,0 hPa 0,0 l/m² 0 min 0 min 0 W/m² 12,9 km/h (3 Bft) 100,00 %
02.01.2026 22:20 0,8 °C 0,0 °C -3,3 °C 95 % 1003,0 hPa 0,0 l/m² 0 min 0 min 0 W/m² 6,4 km/h (2 Bft) 100,00 %
02.01.2026 22:22 0,8 °C 0,0 °C -3,3 °C 95 % 1003,1 hPa 0,0 l/m² 0 min 0 min 0 W/m² 16,1 km/h (3 Bft) 100,00 %
02.01.2026 22:24 0,8 °C 0,0 °C -3,3 °C 95 % 1003,1 hPa 0,0 l/m² 0 min 0 min 0 W/m² 6,4 km/h (2 Bft) 98,25 %
02.01.2026 22:26 0,8 °C 0,0 °C -3,3 °C 95 % 1003,1 hPa 0,0 l/m² 0 min 0 min 0 W/m² 9,7 km/h (2 Bft) 100,00 %
02.01.2026 22:28 0,8 °C 0,0 °C -3,3 °C 95 % 1003,1 hPa 0,0 l/m² 0 min 0 min 0 W/m² 12,9 km/h (3 Bft) 100,00 %
02.01.2026 22:30 0,8 °C 0,0 °C -3,3 °C 95 % 1003,1 hPa 0,0 l/m² 0 min 0 min 0 W/m² 12,9 km/h (3 Bft) 100,00 %
02.01.2026 22:32 0,8 °C 0,0 °C -3,3 °C 95 % 1003,3 hPa 0,0 l/m² 0 min 0 min 0 W/m² 12,9 km/h (3 Bft) 96,23 %
02.01.2026 22:34 0,8 °C 0,0 °C -3,3 °C 95 % 1003,3 hPa 0,0 l/m² 0 min 0 min 0 W/m² 9,7 km/h (2 Bft) 97,37 %
02.01.2026 22:36 0,8 °C 0,0 °C -3,3 °C 95 % 1003,4 hPa 0,0 l/m² 0 min 0 min 0 W/m² 16,1 km/h (3 Bft) 97,96 %
02.01.2026 22:38 0,8 °C 0,0 °C -3,3 °C 95 % 1003,3 hPa 0,0 l/m² 0 min 0 min 0 W/m² 12,9 km/h (3 Bft) 97,83 %
02.01.2026 22:40 0,8 °C 0,0 °C -2,8 °C 95 % 1003,4 hPa 0,0 l/m² 0 min 0 min 0 W/m² 9,7 km/h (2 Bft) 95,83 %
02.01.2026 22:42 0,8 °C 0,0 °C -2,8 °C 95 % 1003,5 hPa 0,0 l/m² 0 min 0 min 0 W/m² 16,1 km/h (3 Bft) 97,87 %
02.01.2026 22:44 0,8 °C 0,0 °C -3,3 °C 95 % 1003,4 hPa 0,0 l/m² 0 min 0 min 0 W/m² 9,7 km/h (2 Bft) 98,15 %
02.01.2026 22:46 0,8 °C 0,0 °C -3,3 °C 95 % 1003,4 hPa 0,0 l/m² 0 min 0 min 0 W/m² 12,9 km/h (3 Bft) 97,87 %
02.01.2026 22:48 0,8 °C 0,0 °C -3,3 °C 95 % 1003,4 hPa 0,0 l/m² 0 min 0 min 0 W/m² 12,9 km/h (3 Bft) 95,74 %
02.01.2026 22:50 0,8 °C 0,0 °C -3,3 °C 95 % 1003,4 hPa 0,0 l/m² 0 min 0 min 0 W/m² 12,9 km/h (3 Bft) 97,44 %
02.01.2026 22:52 0,8 °C 0,0 °C -3,3 °C 95 % 1003,4 hPa 0,0 l/m² 0 min 0 min 0 W/m² 9,7 km/h (2 Bft) 96,30 %
02.01.2026 22:54 0,8 °C 0,0 °C -3,3 °C 95 % 1003,4 hPa 0,0 l/m² 0 min 0 min 0 W/m² 12,9 km/h (3 Bft) 97,83 %
02.01.2026 22:56 0,8 °C 0,0 °C -3,3 °C 95 % 1003,4 hPa 0,0 l/m² 0 min 0 min 0 W/m² 9,7 km/h (2 Bft) 94,87 %
02.01.2026 22:58 0,8 °C 0,0 °C -3,3 °C 95 % 1003,4 hPa 0,0 l/m² 0 min 0 min 0 W/m² 6,4 km/h (2 Bft) 98,25 %
02.01.2026 23:02 0,8 °C 0,0 °C -3,3 °C 95 % 1003,4 hPa 0,0 l/m² 0 min 0 min 0 W/m² 16,1 km/h (3 Bft) 98,81 %
02.01.2026 23:06 0,8 °C 0,0 °C -3,3 °C 95 % 1003,6 hPa 0,0 l/m² 0 min 0 min 0 W/m² 12,9 km/h (3 Bft) 99,03 %
02.01.2026 23:10 0,7 °C 0,0 °C -3,3 °C 95 % 1003,6 hPa 0,0 l/m² 0 min 0 min 0 W/m² 6,4 km/h (2 Bft) 100,00 %
02.01.2026 23:14 0,7 °C 0,0 °C -3,3 °C 95 % 1003,6 hPa 0,0 l/m² 0 min 0 min 0 W/m² 16,1 km/h (3 Bft) 96,00 %
02.01.2026 23:16 0,7 °C 0,0 °C -3,3 °C 95 % 1003,6 hPa 0,0 l/m² 0 min 0 min 0 W/m² 9,7 km/h (2 Bft) 97,56 %
02.01.2026 23:18 0,7 °C 0,0 °C -3,3 °C 95 % 1003,6 hPa 0,0 l/m² 0 min 0 min 0 W/m² 19,3 km/h (3 Bft) 97,87 %
02.01.2026 23:20 0,7 °C 0,0 °C -3,3 °C 95 % 1003,6 hPa 0,0 l/m² 0 min 0 min 0 W/m² 12,9 km/h (3 Bft) 95,56 %
02.01.2026 23:24 0,7 °C 0,0 °C -3,3 °C 95 % 1003,7 hPa 0,0 l/m² 0 min 0 min 0 W/m² 16,1 km/h (3 Bft) 95,74 %
02.01.2026 23:26 0,7 °C 0,0 °C -3,3 °C 95 % 1003,7 hPa 0,0 l/m² 0 min 0 min 0 W/m² 6,4 km/h (2 Bft) 93,33 %
02.01.2026 23:28 0,7 °C 0,0 °C -3,3 °C 95 % 1003,6 hPa 0,0 l/m² 0 min 0 min 0 W/m² 12,9 km/h (3 Bft) 96,00 %
02.01.2026 23:30 0,7 °C 0,0 °C -3,3 °C 95 % 1003,7 hPa 0,0 l/m² 0 min 0 min 0 W/m² 16,1 km/h (3 Bft) 93,48 %
02.01.2026 23:32 0,7 °C 0,0 °C -3,3 °C 95 % 1003,6 hPa 0,0 l/m² 0 min 0 min 0 W/m² 12,9 km/h (3 Bft) 95,74 %
02.01.2026 23:34 0,7 °C 0,0 °C -3,3 °C 95 % 1003,6 hPa 0,0 l/m² 0 min 0 min 0 W/m² 9,7 km/h (2 Bft) 93,62 %
02.01.2026 23:36 0,6 °C 0,0 °C -3,3 °C 95 % 1003,6 hPa 0,0 l/m² 0 min 0 min 0 W/m² 16,1 km/h (3 Bft) 95,65 %
02.01.2026 23:38 0,6 °C 0,0 °C -3,3 °C 95 % 1003,6 hPa 0,0 l/m² 0 min 0 min 0 W/m² 12,9 km/h (3 Bft) 93,62 %
02.01.2026 23:40 0,6 °C 0,0 °C -3,3 °C 95 % 1003,6 hPa 0,0 l/m² 0 min 0 min 0 W/m² 6,4 km/h (2 Bft) 95,65 %
02.01.2026 23:42 0,6 °C 0,0 °C -3,3 °C 95 % 1003,6 hPa 0,0 l/m² 0 min 0 min 0 W/m² 16,1 km/h (3 Bft) 95,65 %
02.01.2026 23:44 0,6 °C 0,0 °C -3,3 °C 95 % 1003,6 hPa 0,0 l/m² 0 min 0 min 0 W/m² 6,4 km/h (2 Bft) 95,56 %
02.01.2026 23:46 0,6 °C 0,0 °C -3,3 °C 95 % 1003,6 hPa 0,0 l/m² 0 min 0 min 0 W/m² 16,1 km/h (3 Bft) 94,12 %
02.01.2026 23:48 0,6 °C 0,0 °C -3,3 °C 95 % 1003,6 hPa 0,0 l/m² 0 min 0 min 0 W/m² 12,9 km/h (3 Bft) 93,62 %
02.01.2026 23:50 0,6 °C 0,0 °C -3,3 °C 95 % 1003,6 hPa 0,0 l/m² 0 min 0 min 0 W/m² 12,9 km/h (3 Bft) 95,74 %
02.01.2026 23:52 0,6 °C 0,0 °C -3,3 °C 95 % 1003,6 hPa 0,0 l/m² 0 min 0 min 0 W/m² 9,7 km/h (2 Bft) 95,56 %
02.01.2026 23:54 0,6 °C 0,0 °C -3,3 °C 95 % 1003,5 hPa 0,0 l/m² 0 min 0 min 0 W/m² 16,1 km/h (3 Bft) 95,65 %
02.01.2026 23:56 0,6 °C 0,0 °C -3,3 °C 95 % 1003,6 hPa 0,0 l/m² 0 min 0 min 0 W/m² 12,9 km/h (3 Bft) 95,92 %
02.01.2026 23:58 0,6 °C 0,0 °C -3,3 °C 95 % 1003,6 hPa 0,0 l/m² 0 min 0 min 0 W/m² 12,9 km/h (3 Bft) 97,87 %
_ Min-Zeit 08:45 06:30 04:28 13:50 02:56 - - - - 06:54 14:02
Minimum _ 0,1 °C -0,6 °C -3,9 °C 81 % 998,2 hPa - - - - 3,2 km/h (1 Bft) 48,78 %
_ Max-Zeit 00:00 12:44 00:00 08:58 23:24 07:00 12:50 03:10 12:56 05:02 00:02
Maximum _ 3,1 °C 5,6 °C -1,1 °C 98 % 1003,7 hPa 0,2 l/m² 5 min 5 min 339 W/m² 41,8 km/h
N (6 Bft)
100,00 %
Durchschnitt _ 1,2 °C 0,8 °C -2,9 °C 93 % 1000,1 hPa #5,5 l/m² #1:31 h #41 min. 84 W/m² 15,1 km/h (3 Bft) 96,96 %
© 2026 W. Hausmann